GEFSMA_con_cape1000_138.txt.gz
Probability
26 29 35 29 29 16 13 10 10 6 6 3 6 6 3 6 13 19 48 81 94 90 90 87 81 81 81 81 84 77 71 68 71 74 74 65 52 45 35 32 19 26 19
19 23 23 26 26 19 16 3 6 6 6 6 6 6 3 3 6 10 29 65 90 94 84 84 84 74 71 71 74 74 71 68 74 74 77 77 77 65 45 42 39 39 32
19 19 23 23 23 16 13 10 10 3 3 6 3 3 3 3 3 6 23 35 58 94 94 84 81 77 71 65 61 74 77 81 77 81 74 71 68 68 74 58 48 45 32
32 26 26 19 16 13 13 10 10 10 3 3 0 0 0 3 6 6 0 19 32 39 65 90 87 84 71 65 58 61 68 71 71 71 74 61 55 61 55 65 55 45 29
42 32 23 16 13 6 6 3 3 0 0 0 0 0 0 0 0 3 0 3 6 10 19 48 90 77 81 68 68 58 58 61 61 61 58 61 61 45 45 48 45 45 29
32 29 23 13 13 10 6 0 3 0 0 0 0 0 0 0 0 0 0 0 0 0 6 16 35 45 77 74 74 68 61 58 55 48 52 55 48 48 42 35 35 32 29
26 23 19 10 10 6 3 3 3 0 0 0 0 0 0 0 0 0 0 3 3 3 0 3 10 10 19 68 65 68 61 48 52 48 48 52 48 48 42 32 26 19 26
19 23 10 10 10 3 3 0 0 0 0 0 0 0 0 0 0 0 0 0 0 3 6 3 3 0 0 0 6 55 74 68 52 42 52 55 52 42 35 29 26 19 13
26 19 10 10 6 3 3 0 0 0 0 0 0 0 0 0 0 0 0 0 0 0 0 0 0 0 0 0 0 6 61 68 65 55 48 52 42 23 29 29 26 19 16
16 10 10 6 6 3 0 0 0 0 0 0 0 0 0 0 0 0 0 0 0 0 0 6 6 3 0 0 0 0 13 42 52 55 52 48 42 19 23 26 19 19 16
19 13 10 6 6 0 0 0 0 0 0 0 0 0 0 0 0 0 0 0 0 0 0 0 0 0 3 0 0 0 6 0 16 35 48 48 39 29 19 29 32 26 23
13 10 6 6 6 0 0 0 0 0 0 0 0 0 0 0 0 0 0 0 0 0 0 0 0 0 0 0 0 3 0 0 0 0 10 19 26 29 32 29 23 23 23
10 10 10 6 6 3 0 0 3 0 0 0 0 0 0 0 0 0 0 0 0 0 0 0 0 0 0 0 0 0 0 0 0 0 0 0 6 6 6 16 10 16 19
13 10 10 6 6 3 0 0 3 3 0 0 0 0 0 0 0 0 0 0 0 0 0 0 0 0 0 0 0 0 0 0 0 0 0 0 0 0 0 0 0 0 0
13 10 6 6 6 0 0 0 3 3 0 0 0 0 0 0 0 0 0 0 0 0 0 0 0 0 0 0 0 0 0 0 0 0 0 0 0 0 0 0 0 0 0
6 10 3 3 6 3 0 0 0 3 0 0 0 0 0 0 0 0 0 0 0 0 0 0 0 0 0 0 0 0 0 0 0 0 0 0 0 0 0 0 0 0 0
6 6 6 10 6 3 0 0 0 0 0 0 0 0 0 0 0 0 0 0 0 0 0 0 0 0 0 0 0 0 0 0 0 0 0 0 0 0 0 0 0 0 0
10 10 6 6 10 3 0 0 0 0 0 0 0 0 0 0 0 0 0 0 0 0 0 0 0 0 0 0 0 0 0 0 0 0 0 0 0 0 0 0 0 0 0
10 10 6 6 6 6 0 0 0 0 0 0 0 0 0 0 0 0 0 0 0 0 0 0 0 0 0 0 0 0 0 0 0 0 0 0 0 0 0 0 0 0 0
6 6 10 6 6 6 3 0 0 0 0 0 0 0 0 0 0 0 0 0 0 0 0 0 0 0 0 0 0 0 0 0 0 0 0 0 0 0 0 0 0 0 0
6 3 3 6 3 3 0 0 3 0 0 0 0 0 0 0 0 0 0 0 0 0 0 0 0 0 0 0 0 0 0 0 0 0 0 0 0 0 0 0 0 0 0
10 3 6 6 6 6 3 0 0 0 0 0 0 0 0 0 0 0 0 0 0 0 0 0 0 0 0 0 0 0 0 0 0 0 0 0 0 0 0 0 0 0 0
10 6 6 3 3 0 0 0 0 0 0 0 0 0 0 0 0 0 0 0 0 0 0 0 0 0 0 0 0 0 0 0 0 0 0 0 0 0 0 0 0 0 0
3 3 3 6 3 0 0 0 0 0 0 0 0 0 0 0 0 0 0 0 0 0 0 0 0 0 0 0 0 0 0 0 0 0 0 0 0 0 0 0 0 0 0
3 3 3 0 0 0 0 0 0 0 0 0 0 0 0 0 0 0 0 0 0 0 0 0 0 0 0 0 0 0 0 0 0 0 0 0 0 0 0 0 0 0 0
0 0 0 0 0 0 0 0 0 0 0 0 0 0 0 0 0 0 0 0 0 0 0 0 0 0 0 0 0 0 0 0 0 0 0 0 0 0 0 0 0 0 0

GEFSMA_con_cape1000_144.txt.gz
Probability
39 26 29 23 19 13 10 6 10 10 6 6 6 6 13 16 26 26 35 74 87 94 81 77 74 74 74 74 71 68 68 65 68 68 68 45 35 42 26 26 13 13 19
35 26 16 16 13 10 10 10 10 6 6 6 6 6 6 16 26 29 32 58 84 94 84 84 74 68 74 71 61 55 58 68 71 74 68 74 55 58 42 42 26 19 26
26 26 13 13 13 10 10 6 3 3 3 6 6 6 6 13 19 23 29 48 71 81 84 87 81 68 61 58 61 58 65 65 74 71 68 68 61 61 65 55 39 42 35
23 13 13 10 10 13 10 3 3 3 3 0 3 3 3 6 13 6 10 29 39 48 71 77 81 74 68 55 55 55 58 68 71 68 61 58 52 48 39 52 55 39 35
16 6 13 10 10 10 3 3 0 0 0 0 0 0 0 0 0 3 6 10 19 35 39 52 74 77 65 58 52 52 48 55 58 58 55 52 48 42 39 39 42 39 29
23 6 10 6 6 3 3 3 0 0 0 0 0 0 0 0 0 0 0 3 6 10 16 29 39 48 58 61 61 52 48 52 55 48 52 48 52 45 35 23 29 32 23
19 16 10 6 6 6 3 3 0 0 0 0 0 0 0 0 0 0 0 3 3 6 6 10 19 29 32 42 52 61 55 35 48 48 42 48 52 48 35 29 19 16 16
16 13 10 6 3 3 3 0 0 0 0 0 0 0 0 0 0 0 0 3 3 3 6 6 10 13 13 29 16 29 58 55 48 52 48 42 42 35 32 23 23 10 10
13 13 6 3 3 3 3 0 0 0 0 0 0 0 0 0 0 0 0 0 0 3 3 10 10 10 3 6 6 0 29 39 55 48 52 52 42 23 13 23 26 19 10
13 13 6 3 3 0 0 0 0 0 0 0 0 0 0 0 0 0 0 0 0 0 0 0 6 6 3 3 0 0 3 13 42 48 58 55 45 19 16 13 23 29 29
6 10 10 3 3 3 0 0 0 0 0 0 0 0 0 0 0 0 0 0 0 0 0 0 0 0 6 3 0 0 0 0 0 19 35 42 29 26 23 19 13 19 26
3 6 6 3 3 3 3 3 0 0 0 0 0 0 0 0 0 0 0 0 0 0 0 0 0 0 0 0 0 0 0 0 0 0 0 10 23 19 26 26 19 19 23
3 3 3 3 3 3 3 3 0 0 0 0 0 0 0 0 0 0 0 0 0 0 0 0 0 0 0 0 3 0 0 0 0 0 0 0 0 3 13 16 19 19 26
3 3 3 3 3 3 3 3 3 0 0 0 0 0 0 0 0 0 0 0 0 0 0 0 0 0 0 0 0 0 0 0 0 0 0 0 0 0 0 0 0 0 0
3 3 3 3 3 3 3 3 3 3 3 0 0 0 0 0 0 0 0 0 0 0 0 0 0 0 0 0 0 0 0 0 0 0 0 0 0 0 0 0 0 0 0
3 3 3 3 3 0 0 0 3 3 3 3 0 0 0 0 0 0 0 0 0 0 0 0 0 0 0 0 0 0 0 0 0 0 0 0 0 0 0 0 0 0 0
3 3 3 3 3 3 0 0 0 0 0 0 0 0 0 0 0 0 0 0 0 0 0 0 0 0 0 0 0 0 0 0 0 0 0 0 0 0 0 0 0 0 0
3 3 3 3 3 3 0 0 0 0 0 0 0 0 0 0 0 0 0 0 0 0 0 0 0 0 0 0 0 0 0 0 0 0 0 0 0 0 0 0 0 0 0
3 3 3 0 0 0 0 0 0 0 0 0 0 0 0 0 0 0 0 0 0 0 0 0 0 0 0 0 0 0 0 0 0 0 0 0 0 0 0 0 0 0 0
6 3 3 3 0 0 0 0 0 0 0 0 0 0 0 0 0 0 0 0 0 0 0 0 0 0 0 0 0 0 0 0 0 0 0 0 0 0 0 0 0 0 0
10 6 3 3 3 0 0 3 0 0 0 0 0 0 0 0 0 0 0 0 0 0 0 0 0 0 0 0 0 0 0 0 0 0 0 0 0 0 0 0 0 0 0
6 3 3 3 3 3 0 0 0 0 0 0 0 0 0 0 0 0 0 0 0 0 0 0 0 0 0 0 0 0 0 0 0 0 0 0 0 0 0 0 0 0 0
3 0 0 0 0 0 0 0 0 0 0 0 0 0 0 0 0 0 0 0 0 0 0 0 0 0 0 0 0 0 0 0 0 0 0 0 0 0 0 0 0 0 0
3 0 0 0 0 0 0 0 0 0 0 0 0 0 0 0 0 0 0 0 0 0 0 0 0 0 0 0 0 0 0 0 0 0 0 0 0 0 0 0 0 0 0
3 3 0 0 0 0 0 0 0 0 0 0 0 0 0 0 0 0 0 0 0 0 0 0 0 0 0 0 0 0 0 0 0 0 0 0 0 0 0 0 0 0 0
3 3 3 0 0 0 0 0 0 0 0 0 0 0 0 0 0 0 0 0 0 0 0 0 0 0 0 0 0 0 0 0 0 0 0 0 0 0 0 0 0 0 0

GEFSMA_con_cape1000_150.txt.gz
Probability
94 87 97 94 68 74 77 74 58 68 61 61 48 48 32 29 26 19 68 68 71 81 71 61 61 45 55 58 61 58 45 55 48 45 39 29 26 19 10 6 16 16 13
97 90 100 100 71 71 58 65 55 71 58 55 45 42 48 42 48 45 52 77 71 77 74 65 61 61 61 58 52 45 48 55 55 45 35 42 32 32 26 13 13 16 13
100 94 81 97 71 68 87 81 61 61 61 55 45 35 52 58 42 52 45 61 68 71 77 74 65 61 55 48 52 55 52 55 65 55 52 52 48 39 29 26 19 23 29
100 100 87 81 84 81 74 77 68 48 42 39 42 32 39 65 55 52 42 58 48 48 58 81 77 58 52 45 35 42 48 58 68 61 48 45 42 39 35 26 29 29 35
87 97 84 90 84 71 61 48 55 42 42 42 42 52 35 32 55 29 35 32 45 42 45 71 68 68 42 48 45 39 42 45 52 58 55 45 39 35 32 29 39 42 29
94 90 94 94 71 68 81 68 68 61 55 52 16 13 23 23 23 26 26 23 32 26 26 29 48 55 55 55 48 35 32 45 52 55 52 39 35 45 39 26 29 35 35
87 94 77 94 87 74 71 52 55 58 45 42 29 26 19 10 13 19 19 13 6 16 19 29 45 48 52 42 39 45 42 39 45 55 48 42 45 39 32 29 29 19 26
87 74 87 87 84 90 87 71 68 52 52 42 29 29 13 13 16 3 26 23 6 16 16 19 32 45 42 39 29 45 48 45 45 45 42 48 42 39 32 35 32 23 19
77 74 84 74 81 71 68 81 74 61 42 45 26 16 6 6 10 13 6 10 19 29 13 23 23 42 39 39 39 19 48 55 45 42 45 55 45 42 35 29 32 32 13
77 74 74 81 77 68 74 61 45 58 58 39 32 26 13 13 10 6 13 10 26 35 23 3 10 29 32 35 32 19 29 29 39 45 52 55 55 42 29 32 29 29 19
74 68 71 74 77 68 65 55 61 58 52 42 29 19 19 19 10 13 13 10 6 6 16 13 16 6 23 26 32 29 0 3 16 32 42 48 55 52 35 29 19 19 23
68 65 61 77 74 68 68 71 65 61 52 48 35 29 19 13 16 19 13 10 6 6 0 13 13 19 16 19 16 6 0 0 0 0 3 23 32 35 32 26 19 23 23
42 61 55 77 74 71 61 68 71 61 52 52 55 32 19 16 13 19 13 10 6 0 6 13 6 16 13 10 16 3 0 0 0 0 0 0 0 10 10 23 26 26 26
42 52 55 61 68 65 55 71 61 58 61 61 29 48 48 10 16 13 10 10 13 10 6 0 6 16 23 23 13 0 3 0 0 0 0 0 0 0 0 0 3 6 10
39 45 48 55 52 55 65 68 65 65 61 42 32 35 35 26 16 19 13 13 10 10 6 10 6 10 23 39 6 16 23 0 0 0 0 0 0 0 0 0 0 0 0
39 39 45 45 52 55 58 65 61 65 55 55 48 39 39 26 32 19 23 19 19 16 10 6 16 13 29 6 3 23 32 3 0 0 0 0 0 0 0 0 0 0 0
45 39 32 35 35 42 45 61 52 45 42 39 29 29 35 35 39 23 23 23 19 23 29 16 13 10 29 32 19 26 26 35 13 0 0 0 0 0 0 0 0 0 0
39 39 35 39 32 32 35 45 35 26 26 29 32 29 32 26 45 39 39 32 29 32 16 23 13 6 29 26 32 42 16 6 10 0 0 0 0 0 0 0 0 0 0
42 42 42 48 42 39 42 39 35 26 29 29 23 23 23 26 39 39 32 19 16 10 19 16 10 35 13 13 16 19 3 29 0 0 0 0 0 0 0 0 0 0 0
32 32 32 39 39 35 29 39 39 39 29 19 19 19 16 23 29 32 29 39 16 23 26 19 16 10 23 23 19 13 10 13 3 0 0 0 0 0 0 0 0 0 0
29 35 39 39 35 26 23 42 39 29 32 23 23 23 16 6 6 10 6 26 26 19 16 19 19 16 19 23 19 10 6 13 26 10 10 6 3 0 0 0 0 0 0
35 32 35 29 26 13 3 0 13 23 26 26 26 23 13 6 0 0 0 0 0 13 23 26 29 23 23 19 23 10 10 6 6 6 10 6 6 3 6 0 0 0 0
32 29 26 23 19 13 0 0 0 13 23 32 35 29 6 0 0 13 0 0 0 0 0 10 6 10 16 19 16 10 23 10 13 13 10 10 6 10 6 0 0 0 0
29 29 19 13 19 10 0 0 0 0 19 13 19 23 26 23 0 0 6 6 10 10 0 0 3 10 10 10 16 19 19 13 16 23 13 10 6 6 3 3 0 0 0
26 23 16 16 10 13 0 0 0 16 26 19 10 10 10 10 0 0 0 6 3 3 0 0 0 0 0 0 0 3 6 6 6 3 6 3 0 3 3 3 3 0 0
26 16 13 13 13 13 3 0 0 19 16 13 10 10 0 0 0 0 0 0 3 0 3 3 0 0 0 0 0 0 3 3 0 0 0 3 0 0 0 0 3 0 0

GEFSMA_con_cape1000_156.txt.gz
Probability
100 100 97 97 97 97 97 100 97 84 84 84 81 74 48 58 65 39 55 84 84 84 81 71 65 58 52 55 52 58 48 45 48 45 45 39 35 26 29 23 19 16 16
100 100 97 100 97 97 97 97 97 87 87 94 94 84 68 65 74 71 48 65 87 84 81 74 55 61 55 58 52 52 52 48 45 45 48 45 32 26 26 19 32 32 35
100 100 97 97 97 97 97 97 97 90 90 84 87 87 77 77 71 81 71 55 58 74 81 87 77 74 55 48 52 52 55 52 61 58 58 52 48 45 35 26 32 35 39
100 100 100 97 97 97 97 97 97 94 94 90 90 87 68 81 87 84 77 68 65 39 61 77 87 81 68 61 52 55 55 58 65 68 65 58 55 61 52 45 42 42 39
100 100 97 97 97 97 90 90 97 97 94 87 90 87 74 74 81 55 68 74 61 65 35 55 84 84 74 61 48 55 52 58 58 55 52 52 48 55 48 45 45 45 42
97 97 97 97 97 97 100 94 90 94 94 87 42 55 68 65 68 61 55 45 58 48 42 35 52 52 74 74 74 68 61 61 52 55 55 48 48 58 45 35 39 29 23
97 100 90 97 100 97 94 90 90 90 81 81 74 65 61 48 65 68 61 52 52 48 52 52 29 39 26 58 71 74 71 65 61 58 55 58 58 58 48 39 23 23 19
100 90 97 90 87 94 94 94 90 87 77 74 68 65 39 45 61 19 65 58 42 42 45 48 55 65 45 23 13 55 71 61 58 58 68 58 55 55 52 48 29 13 16
94 94 87 87 84 90 94 94 90 74 74 61 65 65 39 26 42 45 42 39 48 45 45 48 55 68 65 52 39 10 61 61 68 61 68 65 65 45 42 35 32 26 13
87 90 81 84 87 84 90 90 81 84 71 65 65 68 58 48 32 29 42 42 58 52 35 23 26 45 52 52 52 29 29 35 58 71 71 68 58 52 42 35 26 23 23
87 90 87 87 90 90 94 94 84 84 71 65 61 65 65 61 39 29 19 29 32 42 39 45 42 45 45 45 61 32 23 16 23 52 55 58 58 58 52 35 35 29 32
84 87 87 90 90 94 94 87 81 77 77 77 84 81 77 58 39 39 26 26 16 29 35 42 45 48 52 48 48 26 13 6 6 6 19 39 48 48 55 42 32 32 29
74 77 77 84 94 94 90 90 84 74 74 77 81 84 61 61 55 48 39 26 29 35 42 65 55 48 35 42 32 6 6 0 0 0 0 0 16 26 29 26 39 35 32
61 71 77 81 84 77 74 90 90 84 74 77 58 71 74 68 61 52 39 26 16 23 39 32 45 45 32 52 16 0 0 0 0 0 0 0 0 0 0 3 3 6 13
61 65 61 68 71 71 71 77 77 77 68 65 61 68 71 68 68 58 55 39 23 16 16 26 39 42 45 48 0 3 19 3 0 0 0 0 0 0 0 0 0 0 0
68 61 55 58 71 68 68 71 74 68 61 58 61 61 55 55 61 58 52 45 48 32 23 29 29 32 35 10 0 19 29 3 0 0 0 0 0 0 0 0 0 0 0
61 61 48 52 52 52 58 55 58 55 55 55 48 48 55 48 48 52 52 45 39 35 23 26 35 45 45 35 10 29 23 13 6 0 0 0 0 0 0 0 0 0 0
52 52 48 45 42 42 42 52 52 48 48 52 45 45 39 35 42 45 45 42 32 29 23 26 29 35 39 32 35 35 6 3 6 0 0 0 0 0 0 0 0 0 0
48 39 39 42 39 45 45 52 48 42 42 39 39 32 32 32 35 29 32 32 42 10 23 13 13 23 23 26 32 32 6 16 0 0 0 0 0 0 0 0 0 0 0
42 42 39 35 42 52 42 39 35 39 35 39 32 23 29 32 29 29 19 29 19 19 23 19 6 13 16 19 26 19 13 23 6 0 0 0 0 0 0 0 0 0 0
35 35 35 35 39 29 23 35 39 29 32 32 29 23 19 19 16 10 3 13 6 10 13 16 6 3 3 10 10 10 3 6 6 10 6 0 0 0 0 0 0 0 0
39 32 19 19 16 13 3 0 10 23 19 19 19 19 23 13 3 0 0 0 0 3 10 13 6 6 3 6 10 3 0 0 0 6 6 0 0 3 0 3 0 0 0
35 29 23 23 16 13 0 0 0 10 13 16 19 23 13 6 3 3 0 0 0 0 0 0 3 3 3 3 3 3 3 3 0 3 0 0 0 0 0 0 0 0 0
42 39 32 23 13 6 3 0 0 0 10 13 13 13 13 10 3 3 3 0 0 0 0 0 0 3 0 0 3 0 0 0 3 6 3 0 0 0 0 0 0 0 0
35 35 23 16 13 6 3 0 0 6 16 10 3 3 3 6 6 0 0 3 3 6 0 0 0 0 0 0 0 0 0 0 0 0 0 0 0 0 0 0 0 0 0
23 23 16 16 10 6 3 0 0 0 10 3 3 3 3 0 0 0 0 0 3 3 0 0 0 0 0 0 0 0 0 0 0 0 0 0 0 0 0 0 0 0 0

GEFSMA_con_cape1000_162.txt.gz
Probability
29 32 35 32 32 16 19 16 13 13 13 6 6 6 3 6 6 16 39 87 90 90 87 84 81 71 68 58 58 55 58 48 52 48 52 45 35 29 32 26 19 23 16
32 26 26 29 19 19 16 19 13 16 10 6 0 3 6 6 6 13 29 65 94 94 87 84 81 81 68 65 58 58 55 52 58 61 58 52 48 39 32 26 23 29 32
26 23 26 23 19 16 16 13 13 6 10 6 6 3 0 3 3 16 16 29 55 94 94 90 84 71 68 65 61 58 61 61 65 58 45 48 52 42 39 35 39 35 35
32 16 19 19 23 23 16 19 6 3 3 0 0 3 6 6 6 10 16 19 19 39 65 94 87 87 77 71 68 68 65 65 65 58 48 42 42 39 32 45 42 45 29
32 26 23 23 26 16 6 16 10 10 6 0 3 0 0 0 6 3 6 10 6 3 6 52 84 87 81 74 74 68 71 65 68 61 48 39 39 48 32 32 42 32 26
42 29 23 23 19 16 10 10 10 10 3 0 3 3 0 0 0 3 0 0 3 3 0 3 35 68 81 81 74 71 65 61 65 58 48 39 35 52 35 29 29 26 16
39 35 45 26 16 19 10 10 10 10 3 0 3 0 0 0 0 0 0 0 0 3 0 0 0 3 16 77 81 81 71 65 68 58 55 42 42 58 35 32 23 16 16
45 35 32 23 19 16 10 10 10 6 6 3 0 0 0 0 0 0 0 0 0 0 3 0 0 0 0 6 6 61 74 74 65 61 61 58 48 42 39 32 23 6 6
48 32 23 26 19 16 10 6 6 6 6 3 0 0 0 0 0 0 0 0 0 0 0 0 0 0 0 0 3 6 55 58 77 68 71 52 48 32 23 19 23 10 6
52 35 26 19 16 13 10 6 3 3 3 0 0 0 0 0 0 0 0 0 0 0 0 0 0 0 0 0 0 3 6 23 45 71 68 68 52 39 26 29 29 32 16
32 39 23 19 16 6 6 6 3 3 3 3 0 0 0 0 0 0 0 0 0 0 0 0 0 0 0 0 0 0 3 6 16 32 58 65 58 42 42 26 32 32 35
23 29 23 10 6 6 6 6 6 3 3 3 0 0 0 0 0 0 0 0 0 0 0 0 0 0 0 0 3 0 3 0 0 3 16 32 45 45 42 42 35 32 29
13 16 19 3 3 3 3 6 6 3 3 3 3 0 0 0 0 0 0 0 0 0 0 0 0 0 0 3 3 6 10 0 0 0 0 3 10 26 23 29 32 29 26
6 6 6 6 6 6 10 3 3 3 3 3 3 3 0 0 0 0 0 0 0 0 0 0 0 0 0 0 0 0 0 0 0 0 0 0 0 0 0 0 6 13 16
6 10 10 10 6 6 10 13 6 6 6 6 6 6 3 3 0 0 0 0 0 0 0 0 0 0 0 0 0 0 0 0 0 0 0 0 0 0 0 0 0 0 0
10 10 10 10 10 6 6 10 10 6 6 6 6 6 3 3 3 0 0 0 0 0 0 0 0 0 0 0 0 0 0 0 0 0 0 0 0 0 0 0 0 0 0
10 10 10 6 10 10 6 6 6 6 10 6 3 3 3 3 3 3 3 3 0 0 0 0 0 0 0 0 0 0 0 0 0 0 0 0 0 0 0 0 0 0 0
10 10 10 10 13 13 6 6 6 6 10 6 3 3 3 3 3 3 3 3 3 0 0 0 0 0 0 0 0 0 0 0 0 0 0 0 0 0 0 0 0 0 0
10 10 10 10 6 10 6 10 13 10 6 6 3 3 3 3 3 3 3 3 3 3 0 0 0 0 0 0 0 0 0 0 0 0 0 0 0 0 0 0 0 0 0
10 10 6 6 6 6 6 6 3 6 6 6 6 3 3 3 3 3 3 3 0 0 0 0 0 0 0 0 0 0 0 0 0 0 0 0 0 0 0 0 0 0 0
10 6 6 6 6 3 3 3 3 3 0 0 0 0 0 0 0 0 0 0 0 0 0 0 0 0 0 0 0 0 0 0 0 0 0 0 0 0 0 0 0 0 0
10 6 10 3 3 0 0 0 0 0 0 0 0 0 0 0 0 0 0 0 0 0 0 0 0 0 0 0 0 0 0 0 0 0 0 0 0 0 0 0 0 0 0
10 10 3 0 0 0 0 0 0 0 0 0 0 0 0 0 0 0 0 0 0 0 0 0 0 0 0 0 0 0 0 0 0 0 0 0 0 0 0 0 0 0 0
6 3 0 0 0 0 0 0 0 0 0 0 0 0 0 0 0 0 0 0 0 0 0 0 0 0 0 0 0 0 0 0 0 0 0 0 0 0 0 0 0 0 0
3 0 0 0 0 0 0 0 0 0 0 0 0 0 0 0 0 0 0 0 0 0 0 0 0 0 0 0 0 0 0 0 0 0 0 0 0 0 0 0 0 0 0
3 0 0 0 0 0 0 0 0 0 0 0 0 0 0 0 0 0 0 0 0 0 0 0 0 0 0 0 0 0 0 0 0 0 0 0 0 0 0 0 0 0 0

GEFSMA_con_cape1000_168.txt.gz
Probability
35 29 32 26 29 23 13 10 10 13 10 10 10 13 6 16 13 23 32 65 84 84 77 65 61 58 61 58 52 55 48 45 55 55 52 35 35 35 39 29 23 29 26
26 19 16 16 16 16 6 6 10 10 6 3 3 10 13 16 16 23 29 45 90 87 87 81 71 65 61 55 55 48 52 55 61 52 48 48 42 45 29 26 23 29 26
19 13 10 6 10 13 6 6 3 3 3 3 3 6 6 13 10 13 26 39 52 90 87 94 90 81 71 61 65 52 52 65 71 61 55 52 52 45 39 42 26 29 29
19 10 10 10 6 10 6 6 3 3 3 3 0 0 3 6 10 16 19 26 35 42 68 84 94 94 74 68 65 61 58 65 65 58 55 45 35 39 35 29 39 39 29
19 10 10 10 10 3 3 6 0 3 3 0 0 0 0 0 3 6 13 16 26 32 32 39 74 84 61 65 61 61 65 71 65 58 52 39 29 32 23 23 32 29 19
23 10 10 10 6 3 6 3 10 3 0 0 0 0 0 0 0 0 3 10 10 10 6 10 32 48 65 74 71 71 68 58 61 55 35 35 32 35 26 23 23 16 13
23 16 10 10 10 10 6 6 6 6 6 0 0 0 0 0 0 0 0 3 0 0 6 0 0 10 26 55 65 74 68 65 65 61 52 35 32 42 29 19 16 16 13
26 19 10 10 13 13 10 6 6 6 6 3 3 0 3 0 0 0 0 0 0 0 0 0 0 3 3 13 6 32 74 71 71 71 68 55 39 42 29 19 19 10 3
19 19 13 6 6 10 10 6 6 6 6 3 3 3 3 0 0 0 0 0 0 0 0 0 0 0 0 3 10 6 29 58 58 65 65 65 48 26 23 19 19 13 6
29 19 13 6 6 10 10 6 6 6 6 3 3 0 0 0 0 0 0 0 0 0 0 0 0 0 0 3 0 0 6 6 29 42 61 71 58 42 23 23 23 16 13
19 16 16 13 6 6 6 6 6 6 6 6 6 0 0 0 0 0 0 0 0 0 0 0 0 0 0 0 3 0 0 0 6 19 35 61 61 48 42 32 23 13 19
16 13 19 10 6 10 6 6 6 6 6 3 3 0 0 0 0 0 0 0 0 0 0 0 0 0 0 0 0 0 0 0 0 0 6 16 32 39 42 32 29 29 23
6 6 10 6 6 6 3 3 3 6 6 3 3 3 0 0 0 0 0 0 0 0 0 0 0 0 0 0 0 0 0 0 0 0 0 0 0 16 19 26 29 29 29
6 6 3 3 3 3 3 3 3 3 3 3 3 3 3 3 0 0 0 0 0 0 0 0 0 0 0 0 0 0 0 0 0 0 0 0 0 0 0 0 0 10 10
0 3 3 3 3 3 3 3 3 3 3 3 3 3 3 0 0 0 0 0 0 0 0 3 0 0 0 0 0 0 3 0 0 0 0 0 0 0 0 0 0 0 0
6 6 3 3 3 3 3 3 3 3 3 3 3 3 0 0 0 0 0 0 0 0 0 0 3 3 0 0 0 0 3 0 0 0 0 0 0 0 0 0 0 0 0
6 3 3 3 3 3 3 3 3 6 6 6 6 0 3 3 3 3 3 3 3 3 0 0 3 3 3 3 0 0 0 0 0 0 0 0 0 0 0 0 0 0 0
3 3 3 3 3 3 3 3 3 6 6 3 3 3 3 3 3 3 3 3 3 3 3 0 0 0 0 0 0 0 0 0 0 0 0 0 0 0 0 0 0 0 0
3 3 3 3 3 3 6 6 6 6 3 3 3 3 3 0 0 0 0 0 0 0 0 0 0 0 0 0 0 0 0 0 0 0 0 0 0 0 0 0 0 0 0
10 6 6 6 6 6 6 6 6 3 3 0 0 0 0 0 0 0 0 0 0 0 0 0 0 0 0 0 0 0 0 0 0 0 0 0 0 0 0 0 0 0 0
10 6 6 6 6 6 6 6 3 0 0 0 0 0 0 0 0 0 0 0 0 0 0 0 0 0 0 0 0 0 0 0 0 0 0 0 0 0 0 0 0 0 0
6 3 6 6 3 3 3 0 0 0 0 0 0 0 0 0 0 0 0 0 0 0 0 0 0 0 0 0 0 0 0 0 0 0 0 0 0 0 0 0 0 0 0
3 3 3 3 3 0 0 0 0 0 0 0 0 0 0 0 0 0 0 0 0 0 0 0 0 0 0 0 0 0 0 0 0 0 0 0 0 0 0 0 0 0 0
3 3 3 0 0 0 0 0 0 0 0 0 0 0 0 0 0 0 0 0 0 0 0 0 0 0 0 0 0 0 0 0 0 0 0 0 0 0 0 0 0 0 0
3 3 0 0 0 0 0 0 0 0 0 0 0 0 0 0 0 0 0 0 0 0 0 0 0 0 0 0 0 0 0 0 0 0 0 0 0 0 0 0 0 0 0
3 0 0 0 0 0 0 0 0 0 0 0 0 0 0 0 0 0 0 0 0 0 0 0 0 0 0 0 0 0 0 0 0 0 0 0 0 0 0 0 0 0 0

GEFSMA_con_cape1000_174.txt.gz
Probability
74 71 90 90 71 68 84 74 65 68 55 55 42 32 48 39 32 29 61 81 68 68 55 48 42 48 55 52 42 42 42 42 42 39 29 23 23 23 29 32 23 19 16
84 84 97 90 74 65 61 65 58 68 52 45 45 39 52 45 61 58 35 74 74 74 65 58 55 45 45 55 52 45 45 35 48 45 32 35 45 32 23 26 23 16 19
90 90 90 94 81 87 81 87 65 61 55 45 42 39 55 52 52 48 42 48 65 77 81 74 65 68 52 61 61 61 61 55 65 52 48 39 45 32 35 26 26 26 26
87 90 90 77 81 77 81 84 68 58 55 52 52 42 48 68 55 58 52 55 65 65 74 84 74 74 71 61 58 61 55 61 68 61 55 42 39 32 29 29 35 29 29
87 84 84 87 90 81 71 68 71 65 58 61 42 55 52 45 52 39 35 32 42 61 65 81 77 77 74 68 65 65 68 71 65 61 45 35 32 35 35 26 29 29 32
84 81 81 90 81 84 84 84 74 81 77 81 26 29 39 35 45 52 55 45 45 35 42 45 71 77 68 71 77 68 61 68 61 65 48 45 39 35 35 32 32 23 23
84 90 81 94 90 77 81 71 74 68 74 68 45 35 29 32 39 58 52 48 35 35 45 55 52 55 65 45 48 81 71 71 77 74 58 55 42 39 35 26 23 19 19
74 74 84 77 77 84 84 81 84 65 45 58 52 42 23 16 58 19 42 55 48 45 42 45 58 74 61 71 42 52 68 71 71 77 74 65 55 48 35 29 16 19 13
81 81 81 74 77 81 84 87 90 77 68 61 58 52 16 19 29 26 39 35 45 55 42 39 45 52 55 65 71 23 45 65 61 61 81 84 65 39 32 29 23 19 19
74 74 71 74 71 74 87 84 81 81 87 68 71 71 42 23 32 29 16 26 39 55 48 42 35 55 52 55 68 35 23 13 26 29 65 77 68 45 23 26 26 26 19
74 71 81 77 77 71 84 87 87 97 81 81 68 71 61 58 35 29 26 29 29 32 35 42 35 52 55 48 55 39 10 3 6 19 32 42 65 61 45 32 32 35 32
81 74 68 71 71 74 81 90 90 87 87 87 84 65 58 58 52 45 32 35 39 19 26 35 39 35 45 35 29 13 10 0 0 0 6 13 23 35 42 39 45 42 45
58 58 48 71 71 74 71 84 90 84 77 84 81 81 68 61 52 42 39 39 45 23 35 19 29 32 19 26 35 3 0 0 0 0 0 0 3 10 16 26 32 35 35
58 48 52 58 55 55 55 71 68 71 81 71 65 84 84 65 61 52 52 48 48 39 32 13 10 16 19 19 16 0 19 0 0 0 0 0 0 0 0 3 3 10 16
55 45 55 55 58 61 61 74 68 71 71 81 74 77 71 65 65 48 45 39 42 35 23 16 10 13 16 35 6 16 32 6 0 0 0 0 0 0 0 0 0 0 0
55 52 52 55 55 48 58 52 61 65 68 71 74 71 68 48 58 48 45 39 42 48 23 19 32 13 23 3 3 16 29 6 0 0 0 0 0 0 0 0 0 0 0
52 55 55 58 52 52 52 52 52 45 55 55 52 48 52 58 45 45 48 45 42 39 26 13 19 23 39 23 13 26 19 29 13 0 0 0 0 0 0 0 0 0 0
52 55 55 45 45 42 39 39 39 35 39 42 45 42 42 35 45 55 48 45 42 45 42 32 32 26 32 35 32 35 16 10 6 0 0 0 0 0 0 0 0 0 0
52 45 52 45 42 39 35 39 35 26 26 35 39 32 29 35 39 32 42 35 32 19 42 32 32 35 16 23 32 26 10 19 0 0 0 0 0 0 0 0 0 0 0
45 39 35 35 35 32 26 16 19 19 23 29 23 23 23 16 26 35 29 39 29 32 29 29 32 26 16 10 19 16 6 13 13 3 3 0 0 0 0 0 0 0 0
19 32 32 32 26 16 10 13 23 16 13 16 16 10 6 3 0 0 0 23 26 23 23 26 23 16 23 19 10 10 6 10 13 13 16 10 10 13 3 0 0 0 0
35 32 26 19 13 3 3 3 6 3 10 10 10 6 6 3 0 0 0 0 3 6 16 16 13 6 10 6 10 0 3 3 3 6 3 6 6 6 6 6 0 0 0
26 23 10 13 10 3 3 3 3 3 10 6 6 10 0 0 0 0 0 0 0 0 0 6 6 3 3 3 3 3 3 3 3 3 3 3 6 6 6 0 0 0 0
19 19 13 6 6 3 3 0 0 3 3 3 3 6 10 6 3 3 3 3 3 3 0 0 6 3 6 3 3 3 3 3 3 3 3 3 3 3 0 0 0 0 0
13 6 6 6 10 3 0 0 0 3 3 0 0 0 3 3 0 0 0 3 3 3 0 0 0 0 0 0 0 3 3 3 3 3 3 3 3 3 0 0 0 0 0
6 6 10 10 6 0 0 0 0 0 0 0 0 0 0 0 0 0 0 0 3 3 3 0 0 0 0 0 0 0 0 3 3 0 0 0 0 0 0 0 0 0 0

GEFSMA_con_cape1000_180.txt.gz
Probability
100 97 100 100 100 100 97 97 94 97 87 74 81 65 58 58 68 58 45 84 77 77 58 42 58 55 52 52 45 45 39 45 42 45 45 42 39 35 35 29 26 35 39
100 100 100 97 97 97 97 97 90 94 90 90 94 74 65 68 77 71 48 74 84 77 71 55 52 48 52 55 45 48 39 45 55 55 48 42 55 42 35 26 23 32 32
100 100 100 97 97 97 94 90 84 94 94 90 90 90 81 81 74 87 77 61 61 74 77 71 71 61 55 42 55 58 61 52 61 65 61 52 55 52 45 35 29 26 35
97 100 100 100 97 97 94 94 97 97 90 94 94 90 87 90 77 81 84 84 68 39 58 84 77 74 68 58 65 65 68 68 65 58 55 55 48 45 45 35 35 32 32
90 90 100 97 97 97 97 87 87 90 94 94 90 94 94 87 77 61 77 81 77 74 58 48 90 87 84 84 74 74 74 77 68 55 48 48 39 29 29 29 35 29 29
87 90 90 94 94 97 97 97 94 87 94 94 68 74 87 90 81 77 68 58 65 68 61 52 55 61 90 90 84 77 77 74 71 58 52 45 42 45 32 26 19 19 23
87 94 84 94 94 90 94 94 87 90 90 90 84 77 84 81 81 81 74 74 55 55 68 77 45 35 35 68 81 87 84 74 68 71 65 55 52 42 35 26 19 10 10
87 74 84 81 84 94 90 87 94 97 90 74 77 74 65 58 81 48 77 71 61 71 55 61 55 68 65 39 26 58 84 84 81 71 71 71 55 35 35 29 26 13 6
90 74 81 77 74 77 87 87 90 87 74 81 71 71 52 35 55 71 68 65 74 81 65 65 77 74 65 68 39 16 58 68 84 74 77 77 65 35 35 35 29 16 16
84 87 84 77 81 71 77 81 84 77 74 68 74 77 68 68 48 45 52 55 68 71 65 42 48 55 52 52 58 32 32 35 55 71 71 74 61 48 23 29 35 23 19
81 81 81 81 77 77 77 81 87 87 77 68 65 65 55 65 52 42 19 42 55 61 65 61 55 55 48 45 45 42 23 10 10 26 55 71 65 45 45 39 29 26 29
81 71 68 65 77 74 74 77 84 87 87 77 77 81 68 61 48 32 29 29 35 39 39 52 52 58 48 45 39 29 10 0 0 0 10 26 39 48 39 35 29 32 32
71 68 74 77 68 68 71 74 77 77 77 68 77 87 71 68 48 45 35 32 19 26 39 45 45 55 39 42 42 19 10 0 0 0 0 0 10 16 23 32 32 35 29
65 68 71 71 65 77 74 77 71 65 68 65 61 77 65 65 65 52 45 29 13 16 19 29 42 32 23 32 26 6 3 0 0 0 0 0 0 0 0 0 3 3 13
68 68 68 71 71 68 68 65 61 71 71 71 61 68 55 52 52 55 48 48 23 10 10 16 23 26 32 39 13 3 23 0 0 0 0 0 0 0 0 0 0 0 0
68 68 61 58 58 71 65 61 58 71 61 61 58 48 55 55 48 52 42 42 39 29 6 19 19 23 16 3 0 19 26 3 0 0 0 0 0 0 0 0 0 0 0
65 58 55 55 45 58 52 52 52 61 52 52 48 45 45 55 45 42 35 32 35 19 10 13 26 29 35 32 10 23 19 13 3 0 0 0 0 0 0 0 0 0 0
58 61 52 42 35 42 45 42 45 45 42 35 39 39 32 32 35 32 32 29 23 16 13 13 10 19 26 26 26 23 0 3 3 0 0 0 0 0 0 0 0 0 0
55 48 42 42 42 42 35 32 29 32 32 35 29 26 26 26 29 26 26 23 19 6 13 13 10 16 26 19 13 13 10 6 3 0 0 0 0 0 0 0 0 0 0
42 42 42 35 32 39 32 26 26 23 19 19 19 16 16 19 19 19 16 13 10 16 16 10 6 3 10 13 10 6 6 10 6 0 0 0 0 0 0 0 0 0 0
39 35 35 35 26 26 26 19 23 16 13 13 13 13 13 6 3 3 0 3 6 10 10 13 6 6 6 3 0 3 0 3 6 3 0 3 0 0 0 0 0 0 0
35 35 29 32 23 6 3 3 6 10 10 6 10 10 6 6 0 0 0 0 0 0 0 3 3 3 3 0 0 0 0 0 0 3 3 3 0 0 0 0 0 0 0
32 29 29 23 16 6 3 3 3 10 10 10 10 10 3 0 0 6 0 0 0 0 0 0 0 0 0 6 3 3 0 0 0 3 3 0 0 0 0 0 0 0 0
29 23 16 13 6 3 3 3 3 6 3 6 6 3 3 3 3 3 3 3 3 3 0 0 0 0 0 0 0 0 0 0 0 0 0 0 0 0 0 0 0 0 0
26 19 16 13 10 3 3 3 0 3 3 3 3 3 3 3 3 0 0 3 3 3 0 0 0 0 0 0 0 0 0 0 0 0 0 0 0 0 0 0 0 0 0
23 19 13 6 6 6 0 0 0 3 3 0 3 3 0 0 0 0 0 3 3 3 3 0 0 0 0 0 0 0 0 0 0 0 0 0 0 0 0 0 0 0 0

GEFSMA_con_cape1000_186.txt.gz
Probability
48 35 35 35 32 32 19 13 16 13 10 6 6 6 0 0 0 3 10 81 74 84 81 81 81 58 58 61 52 48 45 42 45 39 39 39 35 39 29 32 29 29 39
42 32 32 35 39 29 23 16 10 6 3 6 6 6 3 3 0 3 6 45 84 87 84 81 77 65 55 58 55 52 55 42 52 48 48 45 45 45 35 35 29 39 35
35 42 39 29 26 16 16 19 16 6 10 10 10 6 3 0 0 3 3 3 39 77 84 77 74 81 71 65 58 52 61 68 65 58 45 45 42 45 42 42 35 26 29
32 35 29 32 23 19 16 10 16 16 16 10 6 6 3 0 3 3 6 0 0 16 55 84 81 81 77 74 65 61 65 61 61 65 45 39 39 32 29 29 32 26 23
42 26 29 26 29 29 23 16 10 13 13 6 3 0 0 0 3 3 3 3 3 6 0 32 84 81 81 81 87 71 74 58 58 55 48 29 32 26 26 29 26 13 10
52 29 23 23 26 19 16 13 19 13 3 0 6 3 0 0 0 0 0 0 3 3 3 6 10 45 81 81 84 84 71 65 55 52 45 42 32 29 16 13 13 13 3
35 39 35 29 26 19 19 19 19 13 13 6 0 0 0 0 0 0 0 0 0 3 3 6 6 6 13 68 71 77 74 68 65 58 52 52 45 35 23 16 13 10 3
45 48 23 19 23 23 19 16 16 10 10 3 3 0 0 0 0 0 0 0 0 0 3 3 3 3 0 3 13 48 84 84 71 71 55 52 52 42 19 16 16 6 3
32 35 26 23 16 16 16 19 16 13 3 3 3 0 0 0 0 0 0 0 0 0 0 0 0 3 3 0 3 0 52 68 77 74 71 58 52 35 26 19 16 16 6
32 29 26 26 19 19 19 19 19 16 6 6 3 0 0 0 0 0 0 0 0 0 0 0 0 3 3 3 0 0 3 19 52 74 77 74 55 35 29 26 32 19 13
26 29 26 26 23 23 19 16 13 13 10 10 3 3 0 0 0 0 0 0 0 0 0 0 0 0 0 0 3 0 0 0 10 19 52 55 45 42 32 29 23 19 10
29 29 35 26 23 23 16 13 6 6 3 3 3 3 0 0 0 0 0 0 0 0 0 0 0 0 0 0 0 0 0 0 0 0 10 23 32 42 32 29 26 19 13
26 23 16 16 16 13 13 13 13 10 3 3 3 3 3 0 0 0 0 0 0 0 0 0 0 0 0 0 0 0 0 0 0 0 0 3 3 10 13 26 26 26 23
26 19 19 16 19 16 10 10 13 10 10 6 3 3 3 3 0 3 3 0 0 0 0 0 0 0 0 0 0 0 0 0 0 0 0 0 0 0 0 0 0 0 0
23 19 26 29 26 19 13 10 6 6 6 6 3 3 3 3 3 0 3 3 3 0 0 0 0 0 0 0 0 0 0 0 0 0 0 0 0 0 0 0 0 0 0
23 23 26 29 26 19 16 10 6 6 3 3 3 3 3 3 3 3 3 0 0 0 0 0 0 0 0 0 0 0 0 0 0 0 0 0 0 0 0 0 0 0 0
23 23 16 16 19 16 13 13 10 10 6 6 3 3 3 3 3 3 0 0 0 0 0 0 0 0 0 0 0 0 0 0 0 0 0 0 0 0 0 0 0 0 0
23 19 16 16 16 16 10 6 6 3 3 3 3 3 3 3 3 3 0 0 0 0 0 0 0 0 0 0 0 0 0 0 0 0 0 0 0 0 0 0 0 0 0
16 13 16 16 16 13 10 3 3 3 3 3 3 3 3 3 3 3 0 0 0 0 0 0 0 0 0 0 0 0 0 0 0 0 0 0 0 0 0 0 0 0 0
10 10 13 13 10 10 6 3 3 3 3 3 3 3 3 3 3 3 0 0 0 0 0 0 0 0 0 0 0 0 0 0 0 0 0 0 0 0 0 0 0 0 0
10 10 10 6 6 3 3 3 3 3 3 3 3 3 3 3 3 3 0 0 0 0 0 0 0 0 0 0 0 0 0 0 0 0 0 0 0 0 0 0 0 0 0
6 6 6 3 3 3 3 3 3 3 3 3 3 3 3 0 0 0 0 0 0 0 0 0 0 0 0 0 0 0 0 0 0 0 0 0 0 0 0 0 0 0 0
6 6 3 3 3 3 3 0 0 3 3 3 3 3 3 0 0 0 0 0 0 0 0 0 0 0 0 0 0 0 0 0 0 0 0 0 0 0 0 0 0 0 0
3 0 0 0 0 0 0 0 0 0 0 0 0 0 0 0 0 0 0 0 0 0 0 0 0 0 0 0 0 0 0 0 0 0 0 0 0 0 0 0 0 0 0
0 0 0 0 0 0 0 0 0 0 0 0 0 0 0 0 0 0 0 0 0 0 0 0 0 0 0 0 0 0 0 0 0 0 0 0 0 0 0 0 0 0 0
0 0 0 0 0 0 0 0 0 0 0 0 0 0 0 0 0 0 0 0 0 0 0 0 0 0 0 0 0 0 0 0 0 0 0 0 0 0 0 0 0 0 0

GEFSMA_con_cape1000_192.txt.gz
Probability
16 13 16 6 19 13 16 13 10 10 13 10 6 6 10 13 10 13 26 48 74 81 68 58 55 58 52 52 39 42 45 29 29 29 32 26 26 39 35 23 26 19 23
13 10 6 13 13 16 10 10 6 6 6 10 10 3 6 6 3 3 10 39 74 74 77 71 65 58 55 52 45 48 45 42 55 52 39 42 32 32 35 23 29 23 16
16 13 13 13 10 10 10 10 3 3 3 6 10 6 3 3 3 6 6 16 32 71 71 74 71 71 58 52 48 48 52 58 68 52 48 42 45 39 32 29 19 26 26
29 10 10 16 6 3 3 6 3 3 3 3 3 3 3 3 3 6 3 10 13 19 68 77 84 84 81 65 61 55 65 61 68 58 52 39 26 23 19 23 26 16 16
35 23 16 6 10 10 6 3 6 0 0 0 3 6 3 3 3 6 0 0 3 3 10 16 65 84 81 74 68 68 65 65 61 55 42 29 23 19 13 10 16 13 13
26 19 13 13 10 3 3 3 6 3 0 0 3 6 6 0 0 3 0 3 3 3 3 0 13 35 65 77 77 77 71 65 68 58 39 32 32 26 13 3 10 3 6
26 16 19 10 10 3 0 0 6 6 3 3 3 0 0 0 0 0 0 0 0 0 3 3 3 6 16 32 48 61 74 65 61 61 48 42 42 29 23 10 10 10 6
32 19 13 16 13 3 3 3 3 3 0 0 3 0 0 0 0 0 0 0 0 0 3 3 6 6 10 6 6 13 48 55 61 61 61 48 39 23 16 13 13 6 3
23 23 16 16 10 10 6 3 3 0 0 3 0 0 0 0 0 0 0 0 3 3 3 13 10 10 6 6 6 6 13 32 45 48 55 52 29 16 16 13 13 13 6
19 16 16 16 10 6 10 6 6 10 6 6 3 3 0 0 0 0 0 0 0 3 0 0 6 10 3 3 6 3 3 6 23 39 52 58 45 19 13 16 10 6 6
13 13 13 10 10 10 10 10 13 3 3 6 6 3 3 0 0 0 0 0 0 0 0 0 0 3 6 3 6 6 0 0 0 10 29 32 35 32 23 13 13 16 10
10 10 16 13 13 13 6 3 6 3 3 3 3 3 3 3 0 0 0 0 3 0 0 0 0 0 0 0 0 0 0 0 0 0 0 6 23 29 29 26 23 23 23
10 13 13 10 10 10 6 3 3 3 3 3 3 3 3 3 0 0 0 3 3 0 0 0 0 0 0 0 0 0 0 0 0 0 0 0 0 3 6 10 16 23 23
16 13 13 13 13 13 10 3 3 3 3 3 3 3 3 3 3 0 3 3 3 0 0 0 0 0 0 0 0 0 0 0 0 0 0 0 0 0 0 0 0 0 3
16 16 16 13 10 6 6 6 10 3 3 3 3 3 3 3 3 3 3 3 3 3 3 0 0 0 0 0 0 0 0 0 0 0 0 0 0 0 0 0 0 0 0
13 13 13 6 10 6 6 3 6 6 3 3 3 3 3 3 3 3 3 0 0 3 3 0 0 0 0 0 0 0 0 0 0 0 0 0 0 0 0 0 0 0 0
6 10 13 13 10 6 6 3 3 3 3 6 3 3 6 6 3 3 3 3 3 3 3 3 0 0 0 0 0 0 0 0 0 0 0 0 0 0 0 0 0 0 0
10 10 10 13 10 13 10 6 3 3 3 3 3 3 3 3 3 3 3 3 3 3 3 3 0 0 0 0 0 0 0 0 0 0 0 0 0 0 0 0 0 0 0
10 10 10 10 13 13 10 6 3 3 3 3 3 3 3 3 3 3 3 3 3 3 0 0 0 0 0 0 0 0 0 0 0 0 0 0 0 0 0 0 0 0 0
13 13 13 13 13 10 10 3 3 3 3 3 3 3 3 3 3 3 3 3 3 0 0 0 0 0 0 0 0 0 0 0 0 0 0 0 0 0 0 0 0 0 0
13 13 13 13 6 6 3 3 3 3 3 3 3 3 3 3 0 0 0 0 0 0 0 0 0 0 0 0 0 0 0 0 0 0 0 0 0 0 0 0 0 0 0
13 13 13 3 3 0 0 0 0 3 3 0 0 0 0 3 3 0 0 0 0 0 0 0 0 0 0 0 0 0 0 0 0 0 0 0 0 0 0 0 0 0 0
3 0 0 0 0 0 0 0 0 0 0 0 0 0 0 0 0 0 0 0 0 0 0 0 0 0 0 0 0 0 0 0 0 0 0 0 0 0 0 0 0 0 0
0 0 0 0 0 0 0 0 0 0 0 0 0 0 0 0 0 0 0 0 0 0 0 0 0 0 0 0 0 0 0 0 0 0 0 0 0 0 0 0 0 0 0
0 0 0 0 0 0 0 0 0 0 0 0 0 0 0 0 0 0 0 0 0 0 0 0 0 0 0 0 0 0 0 0 0 0 0 0 0 0 0 0 0 0 0
0 0 0 0 0 0 0 0 0 0 0 0 0 0 0 0 0 0 0 0 0 0 0 0 0 0 0 0 0 0 0 0 0 0 0 0 0 0 0 0 0 0 0

GEFSMA_con_cape1000_198.txt.gz
Probability
74 71 81 74 61 61 55 77 58 52 45 29 26 26 29 29 35 35 39 58 61 71 65 61 61 55 52 48 39 39 26 29 29 32 29 26 39 35 19 16 19 19 16
77 74 81 81 68 61 55 61 58 77 71 55 32 35 35 35 45 48 45 55 55 65 65 61 61 61 58 55 48 42 35 32 39 35 29 26 39 39 39 29 26 26 23
87 87 71 81 71 61 77 74 65 61 61 55 48 45 35 42 45 52 52 52 61 65 71 71 74 68 58 58 58 48 42 55 61 55 42 35 32 39 39 26 26 26 19
90 87 81 61 71 61 68 74 65 65 55 58 55 52 48 58 55 58 52 65 65 52 71 74 74 77 71 71 71 68 48 61 65 68 55 39 32 32 35 26 23 26 23
87 84 90 81 81 71 65 52 65 61 61 65 42 61 42 48 48 35 55 48 58 65 74 81 74 81 74 71 68 68 68 61 55 45 45 32 23 23 16 19 16 13 16
87 94 87 87 74 77 77 68 77 77 71 81 32 39 55 55 55 42 52 39 55 52 52 71 77 77 81 77 77 71 68 68 58 48 52 39 42 26 10 6 6 6 3
77 84 65 81 84 84 74 58 68 68 77 74 65 58 42 39 55 61 55 48 39 48 48 68 77 81 81 52 55 71 65 61 68 61 52 35 39 39 19 6 3 3 0
77 68 77 71 77 71 77 81 81 71 58 55 52 48 29 29 68 16 42 58 48 48 58 52 68 81 77 71 45 39 45 52 58 65 61 58 45 29 19 16 13 3 3
61 71 77 81 77 77 74 77 77 65 74 61 52 55 39 26 29 29 26 26 39 48 48 52 52 65 65 68 65 26 26 39 39 55 55 52 39 23 13 13 16 10 3
68 65 61 71 74 61 77 58 58 61 71 61 58 65 42 35 35 23 23 23 32 45 39 26 26 52 61 61 65 32 26 19 26 26 39 45 48 35 19 23 19 16 13
68 55 61 71 71 71 65 65 65 71 74 65 55 45 45 52 32 42 26 26 19 19 26 29 26 32 48 52 58 48 16 3 3 13 26 35 35 32 29 26 29 26 16
68 55 61 71 71 68 71 71 61 61 65 61 55 39 35 29 35 35 13 23 29 26 19 32 26 29 29 35 29 10 6 0 0 0 3 10 16 29 32 29 32 23 26
65 68 61 68 68 68 65 61 61 45 52 52 55 45 45 42 39 42 35 29 29 32 32 29 26 23 23 26 32 0 3 0 0 0 0 0 3 3 10 19 23 26 23
61 68 68 68 55 55 55 58 45 48 45 52 35 48 48 39 39 39 39 35 26 26 32 23 23 26 26 26 10 0 13 0 0 0 0 0 0 0 3 3 3 3 6
61 61 61 55 48 58 55 55 42 39 35 42 32 48 52 32 39 42 45 39 29 23 19 26 26 23 16 29 3 16 19 6 0 0 0 0 0 0 0 0 0 0 0
55 48 42 42 42 42 42 45 35 35 39 42 42 42 39 23 29 29 23 32 35 26 29 26 26 26 23 3 3 16 19 0 0 0 0 0 0 0 0 0 0 0 0
48 45 42 32 32 32 35 35 29 26 26 29 29 29 32 32 26 26 29 32 29 32 32 26 19 16 23 23 10 13 6 10 3 0 0 0 0 0 0 0 0 0 0
42 39 32 29 29 29 32 32 29 29 19 23 26 26 26 23 29 26 29 26 32 29 26 23 19 13 13 10 6 10 3 0 3 0 0 0 0 0 0 0 0 0 0
35 32 32 29 26 26 32 26 26 23 23 26 23 23 16 16 19 26 23 26 23 6 16 13 10 13 6 3 0 0 0 6 0 0 0 0 0 0 0 0 0 0 0
29 32 35 32 29 29 23 19 19 23 19 19 19 13 13 10 10 13 6 6 3 6 13 10 6 6 3 0 3 0 0 0 3 0 3 0 0 0 0 0 0 0 0
26 26 29 26 26 19 16 19 13 13 16 10 6 6 3 3 3 3 3 6 3 6 10 6 3 3 3 3 3 0 0 0 3 10 6 6 6 6 3 0 0 0 0
26 26 23 19 19 10 6 3 6 10 6 6 6 3 3 3 0 0 0 0 0 3 3 6 3 3 3 3 3 0 0 3 3 6 6 6 6 6 6 3 0 0 0
29 26 23 19 16 10 3 0 0 6 6 6 6 6 3 0 0 3 0 0 0 0 0 3 3 3 3 3 3 0 3 3 3 3 0 0 3 3 3 0 0 0 0
26 23 19 16 13 10 0 0 0 3 6 6 6 3 3 3 0 3 3 0 3 0 0 0 0 0 0 0 0 0 0 0 0 0 0 0 0 0 0 0 0 0 0
13 13 10 6 10 10 0 0 0 3 6 3 3 3 3 3 0 0 0 3 0 0 0 0 0 0 0 0 0 0 0 0 0 0 0 0 0 0 0 0 0 0 0
13 6 6 6 6 3 0 0 0 3 3 3 3 0 0 0 0 0 0 0 0 0 0 0 0 0 0 0 0 0 0 0 0 0 0 0 0 0 0 0 0 0 0

GEFSMA_con_cape1000_204.txt.gz
Probability
97 90 97 97 94 90 87 94 87 81 71 71 52 45 39 42 42 52 42 71 74 74 68 61 58 58 55 55 52 45 32 32 39 52 45 29 32 26 23 19 26 26 29
100 90 94 94 90 84 87 87 84 87 77 81 68 65 52 52 55 65 45 45 71 77 71 61 55 58 61 52 52 48 45 42 48 55 48 45 52 45 35 29 23 35 39
94 94 97 94 87 81 90 87 87 84 77 81 77 68 68 71 74 74 58 55 48 71 81 77 71 61 61 58 61 61 55 55 52 58 55 45 48 45 39 35 35 32 29
94 94 87 84 84 84 90 87 87 94 90 90 84 84 81 77 84 81 77 77 61 39 52 81 81 84 74 71 71 68 65 68 58 55 55 48 35 35 32 29 32 32 26
94 94 94 90 87 84 87 81 81 94 87 90 90 81 81 81 77 58 71 71 71 71 48 55 87 84 81 68 68 71 68 65 61 52 45 42 32 32 29 23 19 19 26
87 90 90 94 84 81 81 77 84 87 81 77 42 55 74 71 71 71 61 58 65 58 48 39 42 52 74 74 68 68 68 68 61 58 48 45 35 32 13 10 13 13 13
87 87 81 81 84 77 74 74 77 74 81 84 68 58 68 55 65 61 65 71 52 55 48 61 48 48 39 48 52 55 58 58 58 55 45 42 39 35 23 16 10 3 3
77 71 77 68 74 68 65 71 77 74 74 68 65 48 52 52 55 26 65 55 48 52 45 48 55 61 58 35 13 52 58 58 52 48 55 52 42 35 23 19 16 3 3
77 81 77 71 71 68 65 68 74 71 61 71 58 52 42 26 26 39 45 42 48 58 55 52 48 55 48 45 29 16 48 48 55 55 55 58 48 35 19 19 19 13 6
71 71 74 77 77 71 71 71 65 65 65 58 55 65 52 55 42 35 32 32 39 52 42 29 35 39 42 48 45 32 19 19 42 55 52 55 48 39 19 16 13 16 10
71 71 71 74 77 77 71 68 71 68 68 58 58 55 55 48 42 26 26 26 26 39 39 42 39 42 35 42 39 32 23 6 6 13 35 48 52 45 35 32 23 29 19
74 74 74 74 74 74 74 74 71 71 68 65 58 58 48 48 29 32 26 29 19 26 35 32 35 32 29 26 26 26 13 6 0 3 3 16 23 26 26 26 26 29 29
74 74 74 74 71 74 71 71 71 71 68 65 55 45 48 45 35 29 32 26 13 23 29 35 32 26 26 19 16 13 6 6 0 0 3 3 3 3 13 16 23 23 26
74 74 74 74 74 74 65 68 71 68 61 61 48 52 52 48 42 35 29 19 10 13 23 16 23 29 19 19 10 0 6 0 0 0 0 3 3 3 3 3 6 10 10
68 68 65 65 65 61 61 65 58 58 58 61 55 45 42 45 42 39 32 26 16 13 13 19 23 26 19 16 6 13 13 6 0 0 0 0 0 0 0 0 0 0 3
61 58 55 58 58 55 52 48 52 58 52 48 48 45 32 32 39 42 32 29 23 13 10 13 10 10 6 3 3 10 10 3 0 0 0 0 0 0 0 0 0 0 0
55 58 52 52 52 45 42 42 39 42 45 42 35 29 32 39 32 29 35 32 29 19 10 13 13 13 16 10 0 6 3 3 0 0 0 0 0 0 0 0 0 0 0
52 45 45 45 45 42 42 39 35 35 35 35 29 29 29 16 23 26 29 32 26 23 16 6 10 3 3 3 3 3 0 0 0 0 0 0 0 0 0 0 0 0 0
48 39 39 42 42 42 42 32 35 35 29 29 23 19 19 13 10 16 16 16 19 6 10 3 3 3 3 3 3 3 3 3 0 0 0 0 0 0 0 0 0 0 0
35 39 39 35 32 29 26 23 29 29 29 19 13 13 10 6 6 10 3 6 6 3 0 3 0 0 3 3 3 3 3 3 3 0 0 0 0 0 0 0 0 0 0
35 32 32 29 26 19 16 16 23 19 23 16 10 10 10 6 6 3 3 6 3 3 3 0 0 0 0 3 3 3 0 0 0 0 0 0 0 0 0 0 0 0 0
32 32 26 26 19 13 6 6 13 13 13 10 10 10 6 3 0 0 0 0 0 3 3 0 0 0 0 0 3 0 0 0 0 0 0 0 0 0 0 0 0 0 0
32 26 26 19 16 10 6 3 3 10 6 10 6 6 3 0 0 3 0 0 0 0 0 3 0 0 0 0 0 0 0 0 0 0 0 0 0 0 0 0 0 0 0
32 26 23 19 10 6 0 3 3 3 6 6 6 6 10 6 3 3 3 0 0 0 0 0 0 0 0 0 0 0 0 0 0 0 0 0 0 0 0 0 0 0 0
29 23 19 13 3 6 0 0 0 3 3 6 6 6 6 6 0 0 0 0 0 0 0 0 0 0 0 0 0 0 0 0 0 0 0 0 0 0 0 0 0 0 0
29 16 13 10 3 3 0 0 0 3 3 3 6 3 0 0 0 0 0 0 0 0 0 0 0 0 0 0 0 0 0 0 0 0 0 0 0 0 0 0 0 0 0

GEFSMA_con_cape1000_210.txt.gz
Probability
13 13 13 10 6 3 3 3 6 6 6 3 3 3 3 0 0 6 3 71 81 84 77 77 68 65 48 45 52 48 45 39 48 52 42 39 32 16 19 19 16 19 23
13 6 19 16 10 10 10 6 3 3 6 6 3 6 6 6 3 3 0 29 77 74 77 74 74 71 68 52 45 52 45 48 52 52 48 45 45 39 19 16 23 23 23
16 16 16 13 19 16 10 6 13 10 3 6 3 10 6 3 0 3 3 3 19 65 77 77 77 74 71 65 58 58 55 55 58 55 52 48 45 42 42 26 26 29 26
23 13 19 13 13 13 13 6 3 3 3 3 3 3 3 0 0 3 3 3 3 13 52 74 74 74 65 68 65 55 45 42 48 48 45 45 42 35 32 29 26 23 23
29 19 19 16 13 13 6 13 6 6 3 3 3 3 3 0 0 0 0 3 3 3 3 29 65 65 61 61 68 61 55 48 48 45 42 35 29 32 23 23 29 23 19
26 16 13 19 23 16 6 10 10 10 10 10 6 3 0 0 0 0 0 0 0 0 3 3 13 45 52 58 55 58 55 58 48 42 35 29 26 23 13 10 10 10 13
26 19 19 23 19 19 16 13 13 10 10 6 3 0 3 0 0 0 0 0 0 0 0 3 3 3 10 42 45 55 52 52 52 48 39 39 26 26 16 10 3 0 3
26 26 19 23 19 19 13 10 10 6 3 3 3 3 0 0 0 0 0 0 0 0 0 0 3 3 0 6 10 42 48 52 55 52 45 39 39 32 23 13 6 3 3
29 26 23 19 19 16 13 10 10 6 6 3 3 3 0 0 0 0 0 0 0 0 0 3 0 0 0 3 0 6 32 48 48 45 52 45 35 16 10 16 13 10 6
23 26 26 23 23 23 16 13 10 10 3 0 0 0 0 0 0 0 0 0 0 0 0 3 0 0 0 0 0 0 6 16 29 35 39 35 29 32 19 26 19 19 10
23 23 26 26 23 23 16 10 10 6 3 0 10 0 0 0 0 3 3 3 3 0 0 0 0 0 0 0 0 3 3 0 3 13 26 29 29 23 23 19 19 23 19
23 29 39 29 26 26 19 10 10 13 10 10 3 6 6 3 3 3 3 3 3 0 0 0 0 0 3 0 3 3 3 0 0 0 0 3 13 10 10 13 10 13 13
26 26 35 32 26 23 23 19 10 6 10 6 3 3 3 3 3 3 3 3 3 0 0 0 0 0 0 0 0 6 3 0 0 0 0 0 0 3 3 10 6 16 19
26 32 29 23 26 26 19 16 13 10 10 6 6 3 3 3 3 3 3 3 3 0 0 0 0 0 0 0 0 0 0 0 0 0 0 0 0 0 3 3 3 3 3
39 29 23 19 19 23 19 13 10 10 10 6 3 0 0 0 0 0 0 0 3 0 0 0 0 0 0 0 0 0 0 0 0 0 0 0 0 0 0 0 0 0 0
32 32 23 23 19 23 19 13 10 6 6 3 3 3 0 0 0 0 0 0 0 0 0 0 0 0 0 0 0 0 0 0 0 0 0 0 0 0 0 0 0 0 0
29 23 19 19 16 16 16 10 6 6 6 6 3 3 3 0 0 0 0 0 0 0 0 0 0 0 0 0 0 0 0 0 0 0 0 0 0 0 0 0 0 0 0
23 19 19 23 19 19 13 13 10 10 6 6 3 3 3 0 0 0 0 0 0 0 0 0 0 0 0 0 0 0 0 0 0 0 0 0 0 0 0 0 0 0 0
23 19 19 19 16 10 10 10 10 6 6 6 3 3 3 3 0 0 0 0 0 0 0 0 0 0 0 0 0 0 0 0 0 0 0 0 0 0 0 0 0 0 0
23 23 16 13 13 10 6 6 6 6 6 6 6 6 3 3 0 0 0 0 0 0 0 0 0 0 0 0 0 0 0 0 0 0 0 0 0 0 0 0 0 0 0
23 16 13 10 6 6 6 6 6 6 6 6 6 6 6 6 0 0 0 0 0 0 0 0 0 0 0 0 0 0 0 0 0 0 0 0 0 0 0 0 0 0 0
16 13 13 10 6 3 3 3 3 3 3 6 6 6 6 6 3 0 0 0 0 0 0 0 0 0 0 0 0 0 0 0 0 0 0 0 0 0 0 0 0 0 0
6 6 6 3 3 3 3 3 3 3 3 3 3 6 6 6 0 0 0 0 0 0 0 0 0 0 0 0 0 0 0 0 0 0 0 0 0 0 0 0 0 0 0
6 6 6 6 3 3 3 3 3 3 3 3 3 3 3 0 0 0 0 0 0 0 0 0 0 0 0 0 0 0 0 0 0 0 0 0 0 0 0 0 0 0 0
6 6 6 6 3 3 3 3 3 3 3 3 3 3 0 0 0 0 0 0 0 0 0 0 0 0 0 0 0 0 0 0 0 0 0 0 0 0 0 0 0 0 0
6 6 6 3 3 3 3 3 0 3 3 3 3 3 0 0 0 0 0 0 0 0 0 0 0 0 0 0 0 0 0 0 0 0 0 0 0 0 0 0 0 0 0

GEFSMA_con_cape1000_216.txt.gz
Probability
3 3 3 3 6 6 6 10 10 10 10 10 10 6 3 3 3 6 3 32 55 71 68 68 61 58 52 55 45 48 42 35 39 39 29 32 26 26 16 10 10 19 19
3 3 3 3 3 3 3 0 0 3 6 6 6 6 6 3 0 10 10 29 48 77 74 68 65 61 52 58 48 52 48 35 48 45 35 29 26 23 19 16 19 16 23
3 3 3 3 6 3 3 0 0 3 3 3 3 3 13 10 6 6 10 10 26 42 68 68 71 71 65 55 48 39 45 39 48 45 45 42 35 29 26 16 23 32 29
6 3 3 6 6 3 3 3 3 3 3 3 3 3 10 10 6 6 3 6 6 10 32 65 68 68 58 55 52 45 48 42 42 35 35 26 26 35 29 29 26 29 26
6 6 6 6 3 3 3 3 3 3 3 3 3 3 3 6 0 0 0 0 6 3 10 16 45 55 55 52 48 48 45 39 39 39 35 26 19 26 19 19 19 19 16
6 6 6 10 3 3 3 3 3 3 3 3 6 6 0 0 0 0 0 0 0 0 0 6 19 23 39 52 52 52 48 52 42 26 26 23 23 23 13 13 10 10 13
10 6 3 10 6 6 3 6 6 6 3 3 3 3 0 0 0 0 0 0 0 0 0 0 3 13 13 29 35 42 48 52 52 42 35 29 29 19 19 13 6 3 10
6 10 3 6 3 6 6 10 6 3 3 3 3 0 0 0 0 0 3 0 0 0 0 0 0 3 6 6 3 13 32 35 39 45 45 32 26 23 16 19 10 10 6
19 23 6 6 3 3 6 6 6 3 3 3 3 0 0 0 0 0 3 3 3 3 3 3 3 3 0 0 3 0 13 23 29 29 42 42 26 10 6 6 10 10 6
16 19 16 13 10 10 10 10 6 6 3 6 3 0 0 0 0 3 3 0 3 3 0 0 3 0 0 0 0 0 0 3 13 19 16 23 26 13 3 10 13 13 13
10 10 13 10 10 10 6 6 6 6 3 6 6 3 3 0 0 3 3 3 3 3 0 0 0 0 0 0 0 0 0 0 0 10 16 16 19 16 13 6 3 3 0
10 10 10 6 3 6 6 6 10 10 6 6 3 3 3 3 3 3 3 3 3 0 0 0 0 0 0 0 0 0 0 0 0 0 0 3 6 10 10 13 10 6 6
6 6 6 10 13 10 10 10 10 13 6 6 10 3 3 3 3 3 3 3 3 0 0 0 0 0 0 0 0 0 0 0 0 0 0 0 0 0 0 6 6 6 6
10 10 6 13 13 13 10 10 10 10 3 6 6 3 0 0 0 0 3 3 0 0 0 0 0 0 0 0 0 0 0 0 0 0 0 0 0 0 0 0 3 3 3
10 6 13 10 13 13 10 10 6 3 3 6 6 3 0 0 0 0 0 0 0 0 0 0 0 0 0 0 0 0 0 0 0 0 0 0 0 0 0 0 0 0 0
13 23 29 19 13 10 6 6 6 6 6 6 6 3 3 0 0 0 0 0 0 0 0 0 0 0 0 0 0 0 0 0 0 0 0 0 0 0 0 0 0 0 0
16 23 16 16 13 10 6 6 3 3 3 3 3 3 3 3 0 0 0 0 0 0 0 0 0 0 0 0 0 0 0 0 0 0 0 0 0 0 0 0 0 0 0
23 19 19 10 3 3 3 3 3 3 3 3 3 3 3 3 0 0 0 0 0 0 0 0 0 0 0 0 0 0 0 0 0 0 0 0 0 0 0 0 0 0 0
16 16 16 6 6 6 6 6 6 6 3 3 6 6 3 3 3 0 0 0 0 0 0 0 0 0 0 0 0 0 0 0 0 0 0 0 0 0 0 0 0 0 0
16 16 13 10 6 3 3 3 3 6 6 6 6 6 6 6 6 6 0 3 3 0 0 0 0 0 0 0 0 0 0 0 0 0 0 0 0 0 0 0 0 0 0
16 16 13 10 6 3 3 3 3 3 3 3 6 6 6 6 6 3 6 6 3 0 0 0 0 0 0 0 0 0 0 0 0 0 0 0 0 0 0 0 0 0 0
13 10 10 10 3 3 3 3 3 3 3 3 3 3 3 3 3 0 0 0 0 0 3 0 0 0 0 0 0 0 0 0 0 0 0 0 0 0 0 0 0 0 0
10 6 6 6 6 3 3 3 3 3 3 3 3 3 3 3 3 3 0 0 0 0 0 0 0 0 0 0 0 0 0 0 0 0 0 0 0 0 0 0 0 0 0
6 6 6 6 6 3 3 3 3 3 3 3 3 3 3 3 3 3 3 3 0 0 0 0 0 0 0 0 0 0 0 0 0 0 0 0 0 0 0 0 0 0 0
6 6 6 6 6 3 3 3 3 3 3 3 3 3 3 3 3 3 3 3 0 0 0 0 0 0 0 0 0 0 0 0 0 0 0 0 0 0 0 0 0 0 0
6 6 6 6 6 6 3 3 0 3 3 3 3 3 3 3 3 0 3 3 3 0 0 0 0 0 0 0 0 0 0 0 0 0 0 0 0 0 0 0 0 0 0

GEFSMA_con_cape1000_222.txt.gz
Probability
55 42 65 55 48 45 45 45 39 35 35 42 23 26 29 23 26 23 39 55 55 55 52 45 42 45 48 48 42 39 42 32 42 48 39 26 29 23 23 26 26 23 23
68 68 65 74 61 61 42 45 45 42 42 39 35 32 32 35 42 45 39 48 52 48 52 52 42 39 48 52 42 39 42 35 35 48 39 29 32 32 19 19 23 23 23
74 68 65 65 58 58 58 61 58 55 55 42 42 42 48 42 39 48 39 45 55 45 45 48 61 58 48 58 61 48 45 39 39 45 42 32 26 29 26 19 16 23 23
65 74 65 55 58 48 52 55 52 45 45 39 42 45 45 48 39 52 48 52 39 39 48 42 48 55 48 55 55 52 52 52 42 29 35 32 19 32 32 19 23 26 23
65 61 61 65 55 52 58 45 48 58 48 52 39 48 42 45 45 35 39 32 29 32 42 39 39 48 48 55 52 45 42 45 35 32 32 23 23 23 19 16 16 13 13
71 65 58 58 48 45 58 68 65 68 61 65 29 42 52 35 42 29 32 29 29 29 32 32 45 42 32 39 42 45 42 48 45 35 32 26 23 23 19 19 13 13 13
65 71 55 58 58 65 71 61 61 55 58 58 52 45 29 19 23 39 32 35 16 26 32 32 29 35 42 26 26 32 35 35 39 39 35 29 35 32 19 6 13 13 10
61 52 71 55 58 81 71 71 81 65 52 52 55 32 26 35 26 6 26 32 29 29 29 19 32 39 23 35 23 26 26 26 29 35 35 35 32 29 23 13 10 6 6
55 68 68 58 65 55 74 74 71 68 58 52 45 42 26 39 29 19 19 16 23 26 26 23 26 26 19 23 26 13 10 10 16 23 26 26 26 19 13 13 10 10 6
58 55 55 52 68 55 71 68 61 68 71 58 52 42 23 29 29 23 26 23 23 23 19 13 6 23 23 23 19 10 10 6 10 13 13 16 13 13 10 6 6 3 3
48 45 52 61 65 61 71 71 71 71 58 55 58 55 42 45 29 32 23 26 23 23 23 23 23 29 26 23 23 10 3 0 0 3 6 13 10 16 10 6 10 6 6
45 48 48 58 61 61 61 65 65 65 61 68 58 52 55 45 45 45 26 29 29 19 19 19 16 19 19 19 10 6 3 0 0 0 0 0 3 6 10 3 6 10 3
45 55 48 55 52 55 58 55 65 61 55 55 52 48 42 48 48 48 39 23 13 19 16 16 19 23 13 13 10 3 0 0 0 0 0 0 0 0 3 3 3 3 3
39 42 55 55 55 52 35 48 39 52 52 45 39 45 48 39 29 35 35 23 13 3 10 16 10 6 10 6 6 0 10 0 0 0 0 0 0 0 0 0 0 3 3
39 48 52 52 45 45 42 52 48 45 42 39 35 39 35 26 23 19 29 35 19 6 6 10 6 3 10 10 6 10 10 0 0 0 0 0 0 0 0 0 0 0 0
55 52 48 42 42 39 42 42 45 39 35 35 35 39 35 19 16 16 23 26 23 23 3 6 6 3 6 3 3 3 13 3 0 0 0 0 0 0 0 0 0 0 0
52 52 45 42 42 35 32 39 26 29 32 26 23 23 23 23 16 13 16 19 23 26 10 6 6 3 3 10 10 10 10 6 6 0 0 0 0 0 0 0 0 0 0
45 45 39 35 35 39 29 23 19 23 19 19 19 19 16 13 16 16 16 19 19 23 13 6 6 3 3 6 6 10 6 3 6 0 0 0 0 0 0 0 0 0 0
42 39 39 35 32 26 23 19 16 13 13 16 19 19 19 13 13 10 13 10 13 6 13 6 6 6 3 6 6 6 6 6 3 3 0 0 0 0 0 0 0 0 0
42 39 35 32 32 23 19 19 16 13 13 10 6 16 16 13 16 16 10 10 10 6 10 10 10 6 3 3 6 6 6 3 3 3 0 0 0 0 0 0 0 0 0
32 32 32 32 26 26 16 16 10 10 10 10 10 3 6 6 6 6 6 6 6 6 6 10 10 6 3 6 6 6 3 3 3 3 3 0 0 0 0 0 0 0 0
32 32 32 26 19 10 6 6 6 10 10 10 10 10 6 6 3 3 3 3 3 3 6 6 6 6 6 3 3 3 3 3 3 3 0 0 0 0 0 0 0 0 0
32 32 29 26 16 16 6 6 6 10 10 10 10 6 6 3 3 3 3 0 3 3 3 3 3 3 3 3 3 3 3 0 0 0 0 0 0 0 0 0 0 0 0
32 29 29 26 19 16 6 3 0 10 10 13 10 6 3 6 3 3 3 3 3 3 3 3 3 3 3 3 3 3 0 0 0 0 0 0 0 0 0 0 0 0 0
39 32 26 19 19 16 6 3 0 13 13 13 10 6 6 6 3 3 3 3 3 3 3 0 3 3 3 3 3 3 0 0 0 0 0 0 0 0 0 0 0 0 0
32 26 23 16 16 13 6 3 0 10 13 13 10 6 3 3 3 3 3 3 3 3 3 3 3 0 0 0 0 3 0 0 0 0 0 0 0 0 0 0 0 0 0

GEFSMA_con_cape1000_228.txt.gz
Probability
94 87 81 81 65 77 74 77 68 65 65 58 45 48 42 42 42 26 32 58 71 71 68 55 48 45 58 58 52 45 35 39 42 45 45 42 35 26 32 32 32 29 19
90 81 81 84 84 84 84 84 65 68 71 74 55 65 42 42 52 48 29 39 65 68 71 55 45 42 52 52 45 42 35 39 39 45 42 39 32 29 23 26 29 35 23
84 84 81 84 77 74 77 77 74 71 68 65 68 68 65 52 45 55 48 35 39 55 65 58 61 55 45 35 35 32 39 35 39 29 32 42 42 42 39 29 26 23 29
74 87 87 71 81 71 74 84 81 81 74 65 68 61 65 68 55 55 55 52 39 13 26 48 55 52 48 39 35 42 42 39 39 42 35 29 23 26 26 29 19 16 26
68 77 87 84 81 71 74 68 74 71 71 65 58 65 65 61 61 39 48 45 45 42 26 23 45 45 45 45 45 42 42 42 39 35 29 35 29 16 16 19 16 13 19
68 71 84 77 65 65 74 81 71 74 68 65 35 55 61 55 58 48 39 39 29 29 26 13 26 23 29 39 39 45 39 35 35 35 26 26 26 16 10 6 3 10 3
71 81 71 77 74 74 84 65 71 71 61 61 55 61 52 42 42 42 45 42 23 26 29 26 23 26 16 26 29 35 35 35 39 39 32 26 26 29 19 6 3 0 3
68 65 81 74 74 87 81 81 77 77 68 68 68 55 42 39 42 29 35 32 29 35 29 26 26 26 13 10 6 13 23 26 26 32 35 29 29 29 23 19 10 3 3
68 71 74 81 77 84 81 81 81 77 68 74 74 65 52 29 29 39 26 26 26 29 26 26 26 26 19 16 13 6 13 16 19 23 23 26 19 16 6 10 3 6 0
68 71 74 74 81 81 81 74 81 81 74 74 74 71 65 58 35 23 32 23 26 26 19 16 23 19 16 16 13 13 6 6 10 16 16 13 19 13 10 3 10 6 3
61 61 65 74 71 74 81 77 81 77 74 74 68 68 58 58 52 32 23 23 23 23 26 23 19 16 16 13 13 13 10 3 3 3 3 13 13 13 13 10 10 6 6
68 68 68 71 71 71 74 77 74 74 74 68 71 71 61 55 52 32 26 16 23 13 16 19 19 16 13 13 10 13 13 0 0 0 0 0 0 6 6 10 6 6 6
71 71 58 68 65 68 68 68 77 68 61 61 61 68 58 55 45 35 29 16 19 13 13 10 13 13 13 13 10 10 6 0 0 0 0 0 0 0 0 3 3 6 6
68 65 61 61 61 58 58 65 65 61 68 68 52 52 52 52 42 39 32 16 13 10 10 6 10 13 13 13 10 6 10 0 0 0 0 0 0 0 0 0 0 0 3
65 61 58 58 61 58 61 61 61 61 61 58 52 55 48 39 32 39 39 26 10 6 6 10 10 10 10 13 6 6 13 6 0 0 0 0 0 0 0 0 0 0 0
61 58 55 48 55 55 55 61 55 48 48 52 52 45 45 35 35 39 39 23 26 6 6 10 3 6 6 3 6 10 13 3 0 0 0 0 0 0 0 0 0 0 0
61 58 55 52 52 55 55 58 42 42 32 32 32 26 23 35 32 26 23 26 26 19 6 6 6 6 6 10 6 10 6 6 6 0 0 0 0 0 0 0 0 0 0
58 55 55 52 45 45 48 35 32 29 26 26 26 32 23 19 26 26 23 23 19 13 10 6 6 6 3 6 3 3 0 0 3 0 0 0 0 0 0 0 0 0 0
58 55 52 45 39 39 35 32 29 26 23 23 19 19 19 19 16 16 26 16 16 10 10 3 6 3 3 3 3 0 0 3 0 0 0 0 0 0 0 0 0 0 0
58 55 48 45 39 35 32 29 26 23 23 19 16 23 16 10 16 19 16 16 13 10 3 3 3 3 3 3 3 0 0 3 0 0 0 0 0 0 0 0 0 0 0
55 52 48 45 42 32 23 23 23 19 19 19 13 16 16 10 6 6 6 6 3 3 6 6 3 3 3 3 3 3 0 0 0 0 0 0 0 0 0 0 0 0 0
55 52 48 45 35 26 10 6 10 16 19 19 13 16 16 6 6 3 3 3 3 3 3 3 3 3 3 3 3 3 0 0 0 0 0 0 0 0 0 0 0 0 0
52 52 45 32 23 13 6 6 6 10 13 16 13 13 16 10 6 6 3 3 3 3 3 3 3 3 3 3 3 3 0 0 0 0 0 0 0 0 0 0 0 0 0
48 48 35 32 26 10 6 6 6 10 16 16 13 13 16 16 6 10 6 3 3 3 3 3 3 3 3 3 3 3 3 0 0 0 0 0 0 0 0 0 0 0 0
52 52 35 32 29 10 6 6 3 10 16 16 13 10 10 10 3 3 3 6 6 3 3 3 3 3 3 3 3 3 3 3 3 0 0 0 0 0 0 0 0 0 0
48 45 32 32 26 13 6 6 0 10 16 16 16 10 6 6 3 3 3 3 3 3 3 3 3 3 3 3 0 3 3 3 3 3 0 0 0 0 0 0 0 0 0

GEFSMA_con_cape1000_234.txt.gz
Probability
0 3 3 3 0 0 0 3 3 3 0 0 0 0 0 0 0 0 3 58 74 74 71 65 55 55 52 58 58 55 55 45 42 42 42 32 29 29 29 19 19 23 23
3 3 3 3 3 0 3 6 6 6 3 3 0 0 0 0 0 0 3 26 65 71 68 55 61 61 55 48 52 48 45 35 35 39 39 42 42 32 32 29 29 29 19
0 3 6 6 10 6 6 6 0 0 6 10 3 3 3 3 3 3 3 6 16 52 58 58 61 58 52 48 39 42 39 29 29 32 26 35 35 35 32 29 32 32 26
6 10 16 10 10 10 10 6 6 6 6 6 3 3 6 3 6 3 3 3 3 10 29 55 61 61 58 48 52 45 39 29 29 26 26 23 26 19 23 16 19 16 23
23 19 10 13 13 6 3 6 6 6 6 6 10 10 3 3 3 6 3 3 3 3 3 13 39 42 42 48 48 45 42 39 39 26 19 16 23 13 13 16 6 10 6
23 10 6 6 16 6 10 13 10 10 10 13 16 10 3 3 3 0 0 0 3 3 3 3 13 19 35 39 45 39 35 35 35 32 26 19 19 16 6 0 0 3 3
26 13 19 13 13 16 10 13 10 10 13 10 3 3 3 0 0 0 0 0 0 3 3 3 3 3 3 19 19 26 26 26 26 26 26 16 10 10 6 3 3 0 0
23 32 19 16 16 19 16 10 10 6 10 6 3 3 3 3 0 0 0 0 0 0 3 3 3 3 3 3 3 13 23 19 23 23 26 23 19 13 6 3 6 3 3
29 23 16 19 16 19 13 16 16 10 6 3 3 3 3 3 0 0 0 0 0 0 0 6 3 3 3 0 3 3 13 16 19 16 19 16 10 10 6 6 6 3 3
26 19 16 19 19 16 16 19 13 10 6 6 6 3 3 3 3 0 0 0 0 0 0 0 0 3 0 0 0 0 6 6 13 16 23 23 13 10 3 6 3 3 3
26 32 23 26 19 16 16 13 16 6 6 6 6 6 3 3 0 0 0 0 0 0 0 0 0 0 3 0 0 0 3 3 6 6 13 16 19 13 6 6 6 6 3
29 29 29 16 19 19 13 13 10 13 6 6 6 3 0 0 0 0 0 0 0 0 0 0 0 0 0 0 6 6 3 3 0 3 6 3 6 10 6 3 3 3 10
26 29 26 23 23 23 23 16 16 16 13 10 0 0 0 0 0 0 0 0 0 0 0 0 0 0 0 0 0 0 0 3 3 0 0 0 3 0 0 3 3 3 3
23 19 23 23 23 23 16 13 10 10 10 6 6 0 0 0 0 0 0 0 0 0 0 0 0 0 0 0 0 0 0 0 0 0 0 0 0 0 0 0 0 0 0
29 26 23 23 23 13 13 10 6 3 3 3 6 3 0 3 0 0 0 0 0 0 0 0 0 0 0 0 0 0 0 0 0 0 0 0 0 0 0 0 0 0 0
26 26 19 19 13 10 10 10 3 10 6 3 3 3 6 6 3 0 0 0 0 0 0 0 0 0 0 0 0 0 0 0 0 0 0 0 0 0 0 0 0 0 0
23 19 23 19 16 13 13 10 6 6 3 3 0 3 6 6 6 3 0 0 0 0 0 0 0 0 0 0 0 0 0 0 0 0 0 0 0 0 0 0 0 0 0
26 23 23 19 26 16 13 13 10 10 6 6 0 3 3 6 6 3 3 3 3 0 3 3 0 0 0 0 0 0 0 0 0 0 0 0 0 0 0 0 0 0 0
23 19 23 26 26 16 6 6 10 6 6 6 6 3 3 3 3 3 3 3 3 3 3 3 3 0 0 0 0 0 0 0 0 0 0 0 0 0 0 0 0 0 0
23 26 23 19 19 3 3 10 10 6 6 6 6 6 3 3 3 3 3 3 3 3 3 3 3 3 3 0 0 0 0 0 0 0 0 0 0 0 0 0 0 0 0
23 26 16 16 16 6 6 6 6 6 6 6 6 6 6 6 3 3 3 3 3 3 3 3 3 3 3 3 3 0 0 0 0 0 0 0 0 0 0 0 0 0 0
23 19 16 16 16 16 10 3 6 6 6 6 6 6 6 6 6 3 3 3 3 3 3 3 3 3 3 3 3 3 3 0 0 0 0 0 0 0 0 0 0 0 0
16 13 19 16 16 13 3 3 3 6 6 6 6 6 6 6 6 3 3 0 0 3 3 3 3 3 3 3 3 3 3 3 3 0 0 0 0 0 0 0 0 0 0
10 13 16 13 13 10 3 3 3 3 6 6 6 6 6 6 6 3 3 3 3 3 3 3 3 3 3 3 3 3 3 3 3 0 0 0 0 0 0 0 0 0 0
13 10 10 10 10 6 3 0 0 3 6 6 6 6 6 6 3 3 3 3 3 3 3 3 3 3 3 3 3 3 3 3 3 3 0 0 0 0 0 0 0 0 0
13 13 13 10 10 6 3 3 0 3 6 6 6 6 6 6 6 3 3 3 3 3 3 3 3 0 0 0 0 0 3 3 3 3 3 3 0 0 0 0 0 0 0

GEFSMA_con_cape1000_240.txt.gz
Probability
0 0 0 3 3 0 0 0 0 0 0 0 0 3 3 3 3 3 6 19 42 52 61 48 42 48 52 52 48 39 32 29 35 35 35 29 26 29 23 19 19 23 23
0 0 0 0 3 0 0 0 0 0 0 3 0 0 3 6 6 3 0 13 42 52 52 52 45 45 52 42 39 42 32 26 35 39 29 32 32 29 26 19 19 26 23
0 0 0 0 0 0 0 0 0 0 3 3 6 6 6 6 10 6 3 6 16 39 39 39 42 45 39 35 39 35 32 26 29 32 32 35 29 32 26 26 29 29 29
0 0 3 0 0 0 0 3 0 3 3 3 6 6 6 6 6 6 3 3 6 6 19 35 39 42 35 29 32 26 32 32 29 29 19 23 16 16 13 16 26 23 26
6 3 0 0 0 3 3 3 6 3 6 6 3 6 3 3 3 3 6 3 3 6 10 10 23 32 29 29 32 32 26 26 29 23 13 16 13 19 6 3 6 10 13
3 0 0 0 3 3 6 6 6 6 6 10 6 3 6 0 0 0 0 0 3 3 3 3 10 16 19 23 26 26 23 23 23 19 13 6 10 6 3 3 6 6 6
10 10 10 6 6 6 6 6 6 6 3 3 3 3 0 0 0 0 0 0 0 0 3 3 3 3 6 10 19 19 19 19 19 19 19 6 6 6 6 3 3 3 3
13 16 13 6 6 6 6 6 6 3 3 3 3 3 0 0 3 0 0 0 0 0 0 0 3 3 3 3 3 10 19 16 16 19 16 23 19 10 3 6 3 3 3
19 16 13 6 10 10 6 3 3 3 3 3 3 3 3 3 3 3 0 0 0 0 0 3 0 0 0 0 0 3 6 16 19 16 16 16 19 10 3 3 6 3 3
23 19 10 13 13 13 10 6 6 3 3 3 3 3 3 3 3 3 0 0 0 0 3 0 3 3 3 0 0 0 0 3 6 16 16 16 16 13 10 6 3 6 3
16 19 10 13 13 16 16 13 3 3 3 3 3 3 0 0 0 0 0 0 0 0 0 0 0 0 3 3 3 0 0 0 3 3 6 13 16 13 13 13 10 13 6
13 19 19 19 13 16 19 10 6 3 3 3 0 0 0 0 0 0 0 0 0 0 0 0 0 0 0 0 3 0 0 0 0 0 3 3 13 13 13 13 10 10 13
13 16 23 23 23 23 19 13 13 13 3 3 3 3 0 0 0 0 0 0 0 0 0 0 0 0 0 0 0 0 0 0 0 0 0 0 3 6 6 6 3 10 6
13 19 23 23 23 16 16 10 3 6 6 6 6 0 0 0 0 0 0 0 0 0 0 0 0 0 0 0 0 0 0 0 0 0 0 0 0 0 0 0 0 0 0
16 19 19 19 19 16 13 10 6 3 6 0 0 0 3 0 0 0 0 0 0 3 0 0 0 0 0 0 0 0 0 0 0 0 0 0 0 0 0 0 0 0 0
23 19 23 19 16 13 10 10 6 3 0 0 0 0 0 0 0 0 0 0 0 0 3 0 0 0 0 0 0 0 0 0 0 0 0 0 0 0 0 0 0 0 0
23 19 19 19 13 13 10 10 6 3 6 3 3 0 0 0 0 0 0 0 0 0 0 0 0 0 0 3 0 0 0 0 0 0 0 0 0 0 0 0 0 0 0
23 19 13 16 19 16 10 6 6 6 10 10 3 3 0 0 0 0 3 3 0 0 0 3 3 0 3 3 3 0 0 0 0 0 0 0 0 0 0 0 0 0 0
19 13 13 16 19 16 6 10 10 3 3 6 6 6 0 0 3 3 3 3 3 3 0 3 3 3 3 3 0 0 0 0 0 0 0 0 0 0 0 0 0 0 0
13 13 16 19 19 13 6 6 6 6 3 3 3 3 3 3 3 3 3 3 3 3 3 3 3 3 3 3 0 3 3 0 0 0 0 0 0 0 0 0 0 0 0
10 13 13 16 16 10 6 3 3 3 3 3 3 3 3 3 3 3 3 3 3 3 3 3 3 3 3 3 3 3 3 3 3 0 0 0 0 0 0 0 0 0 0
13 13 13 10 10 10 3 3 3 3 3 3 3 6 6 3 3 0 0 0 3 3 3 3 3 3 3 3 3 3 3 3 3 3 0 0 0 0 0 0 0 0 0
10 6 6 3 10 10 6 3 3 3 3 3 6 6 6 6 3 6 0 0 0 0 3 3 3 3 3 3 3 3 3 3 3 3 0 3 3 3 3 0 0 0 0
3 3 3 3 3 10 0 0 0 0 3 6 6 6 6 6 6 6 6 6 3 3 0 3 3 3 3 3 3 3 3 3 3 3 3 3 3 3 3 3 0 0 0
3 3 3 3 3 3 0 0 0 0 0 3 3 6 6 6 6 3 6 6 6 3 3 0 0 0 0 0 3 3 3 3 3 3 3 3 3 3 3 3 3 0 0
10 10 3 3 3 3 0 0 0 0 0 0 3 3 3 3 6 3 6 6 6 6 3 3 3 3 3 3 0 3 3 3 3 3 3 3 3 3 3 3 3 3 0

GEFSMA_con_cape1000_246.txt.gz
Probability
39 39 55 61 29 39 42 45 48 39 48 29 29 26 19 26 26 23 35 29 35 48 42 39 39 35 32 42 42 35 26 23 26 23 19 26 23 29 32 26 23 26 26
52 42 52 74 48 42 39 52 52 52 48 45 29 16 16 19 26 29 29 29 26 35 39 35 35 35 29 39 35 39 29 29 39 29 26 26 26 16 19 19 29 23 19
65 61 58 58 42 45 52 55 48 52 35 26 29 32 32 29 23 26 23 29 39 29 35 35 35 35 35 32 29 23 23 26 29 35 32 32 26 16 13 10 10 13 19
52 68 58 52 58 48 45 52 45 45 48 39 35 35 35 42 35 39 26 35 35 29 26 32 32 32 39 35 39 32 32 23 26 32 32 29 26 19 23 13 10 10 13
45 61 61 68 65 48 39 32 48 48 48 45 35 45 35 39 39 32 26 29 26 32 29 29 29 26 23 23 29 29 32 23 23 23 26 23 23 13 13 13 10 10 6
55 61 58 68 48 52 65 52 52 58 45 45 16 29 35 32 29 29 32 29 29 29 26 26 29 23 26 26 26 19 23 23 23 26 23 19 19 13 6 6 3 3 3
48 58 52 65 68 55 65 58 48 35 39 42 39 32 29 16 23 35 29 29 26 29 26 26 29 23 23 26 29 19 19 19 23 26 23 26 19 13 3 3 3 3 3
55 42 65 65 65 74 71 61 58 45 32 48 45 45 39 26 26 19 32 32 23 23 23 23 19 19 19 26 19 19 19 16 19 19 19 19 23 23 10 3 3 3 3
58 52 61 65 68 55 68 68 61 55 45 42 29 42 23 29 26 26 29 29 26 16 16 16 16 19 19 23 23 16 19 16 13 13 19 16 19 23 10 3 3 3 3
55 52 48 58 61 52 68 52 45 55 52 42 48 52 48 45 29 23 23 13 16 16 19 10 10 10 13 16 16 13 10 10 6 13 10 16 19 16 16 16 6 6 3
52 45 42 45 48 52 55 55 52 45 52 42 35 35 29 35 26 19 13 13 13 10 16 10 10 10 6 16 16 13 3 0 3 6 10 10 10 16 13 16 16 13 13
58 48 45 55 45 45 58 52 55 42 52 42 55 42 29 26 23 13 10 26 19 10 13 16 16 13 16 16 10 3 0 0 0 3 3 3 6 10 6 10 13 13 13
58 61 48 61 52 58 52 58 55 39 45 48 52 39 35 26 23 16 10 13 13 10 13 10 13 13 10 13 10 3 3 0 0 0 0 0 0 6 6 6 6 6 6
55 58 58 58 55 52 45 58 55 48 45 48 32 48 35 29 23 13 13 13 16 13 13 10 6 10 13 6 6 0 3 0 0 0 0 0 0 0 3 6 6 3 6
55 55 52 52 45 48 48 52 52 55 61 48 39 39 35 35 32 32 23 19 19 16 13 13 13 10 13 13 6 6 10 3 0 0 0 0 0 0 0 0 0 0 0
58 58 48 42 42 42 45 52 52 52 52 48 45 42 39 29 29 23 23 16 16 16 10 6 13 10 10 6 3 10 10 3 0 0 0 0 0 0 0 0 0 0 0
68 55 52 42 45 48 48 48 45 48 42 35 29 29 35 35 19 23 26 29 23 26 19 6 6 6 10 13 10 10 10 10 10 0 0 0 0 0 0 0 0 0 0
55 55 55 58 45 42 42 39 42 32 26 29 29 32 32 32 35 23 23 16 23 26 19 13 6 6 10 6 13 13 6 3 10 0 0 0 0 0 0 0 0 0 0
58 52 55 52 42 39 35 35 35 32 26 26 23 26 26 23 29 19 16 13 19 13 16 10 10 6 6 10 13 10 6 13 3 3 0 0 0 0 0 0 0 0 0
55 55 55 48 45 35 35 35 29 29 32 26 26 23 19 16 16 23 16 23 16 16 13 13 6 6 6 10 10 6 10 13 6 3 3 3 0 0 0 0 0 0 0
52 52 55 55 45 42 32 32 26 26 23 19 19 19 13 10 6 10 6 16 19 16 13 10 6 6 6 6 6 6 6 6 6 3 6 6 3 6 3 0 0 0 0
55 55 55 55 52 26 13 13 19 19 19 19 19 16 13 10 10 3 6 6 6 19 13 16 6 6 6 6 6 6 6 6 6 6 3 3 3 3 6 3 3 0 0
52 52 52 52 45 26 10 3 3 19 19 19 19 19 6 6 6 13 6 3 3 0 3 13 13 6 6 6 6 6 6 6 6 6 3 3 3 3 3 3 3 3 0
55 52 52 48 48 23 3 0 0 10 13 16 16 13 13 13 10 6 6 6 6 13 10 10 10 6 6 6 6 6 6 6 6 6 6 6 3 3 3 3 3 3 0
48 45 45 45 39 26 0 0 0 13 16 13 10 10 10 10 6 3 6 10 6 10 6 3 6 6 6 6 6 6 6 6 6 6 6 6 6 3 3 3 3 3 0
48 42 42 39 35 32 16 0 0 13 16 13 13 10 6 6 3 0 3 6 6 6 3 3 6 6 6 6 0 6 6 6 6 6 6 6 6 3 3 3 3 3 3